EVA16 RCTP-KLAX

Flight info

Callsign EVA16
Flight time 10h 23m
Altitude 31000
Route MOLKA1A MOLKA M750 MIDAI/N0492F330 M750 MUKEP Y891 OVSUN/N0492F320 Y893 IGMIS/N0491F330 Y57 POROT Y809 AVBET OTR9 EMRON DCT 42N160E 44N170E 45N180E/N0485F350 46N170W 45N160W 43N150W 41N140W/N0471F370 DCT COBAD DCT ALCOA DCT PIRAT DCT BSR DCT MCKEY LEENA8
Aircraft B77W/H-SDE1E2E3FGHIJ2J3J4J5M1RWXY/LB1D1

Departure

Time 2026-04-25 17:39
Airport Taiwan Taoyuan International Airport (RCTP)

Arrival

Time 2026-04-26 04:02
Airport Los Angeles International Airport (KLAX)
Time Latitude Longitude Altitude Speed Heading
2026-04-25 17:13 25.07551 121.23379 106 ft 0 kts 319°
2026-04-25 17:28 25.07544 121.23386 107 ft 4 kts 319°
2026-04-25 17:28 25.07524 121.23405 104 ft 4 kts 319°
2026-04-25 17:29 25.07504 121.23425 106 ft 4 kts 309°
2026-04-25 17:29 25.07489 121.23450 105 ft 4 kts 289°
2026-04-25 17:29 25.07485 121.23478 105 ft 4 kts 258°
2026-04-25 17:29 25.07492 121.23496 106 ft 0 kts 229°
2026-04-25 17:31 25.07488 121.23491 105 ft 2 kts 229°
2026-04-25 17:32 25.07475 121.23475 105 ft 4 kts 229°
2026-04-25 17:32 25.07454 121.23448 107 ft 5 kts 229°
2026-04-25 17:32 25.07423 121.23408 105 ft 10 kts 229°
2026-04-25 17:32 25.07360 121.23326 108 ft 19 kts 229°
2026-04-25 17:33 25.07282 121.23227 105 ft 15 kts 227°
2026-04-25 17:33 25.07187 121.23210 107 ft 15 kts 150°
2026-04-25 17:33 25.07095 121.23267 108 ft 15 kts 175°
2026-04-25 17:33 25.07007 121.23206 106 ft 15 kts 227°
2026-04-25 17:34 25.06936 121.23116 104 ft 15 kts 229°
2026-04-25 17:34 25.06866 121.23027 104 ft 15 kts 229°
2026-04-25 17:34 25.06796 121.22938 104 ft 15 kts 229°
2026-04-25 17:34 25.06726 121.22848 104 ft 15 kts 229°
2026-04-25 17:35 25.06647 121.22748 104 ft 20 kts 229°
2026-04-25 17:35 25.06551 121.22625 106 ft 22 kts 229°
2026-04-25 17:35 25.06452 121.22499 104 ft 22 kts 229°
2026-04-25 17:35 25.06354 121.22374 106 ft 22 kts 229°
2026-04-25 17:36 25.06286 121.22291 105 ft 3 kts 228°
2026-04-25 17:36 25.06268 121.22269 105 ft 5 kts 224°
2026-04-25 17:36 25.06221 121.22258 106 ft 10 kts 168°
2026-04-25 17:36 25.06151 121.22305 102 ft 12 kts 141°
2026-04-25 17:37 25.06109 121.22381 101 ft 13 kts 77°
2026-04-25 17:37 25.06134 121.22420 101 ft 0 kts 46°
2026-04-25 17:38 25.06137 121.22424 101 ft 4 kts 46°
2026-04-25 17:38 25.06178 121.22474 102 ft 24 kts 48°
2026-04-25 17:39 25.06444 121.22809 100 ft 95 kts 49°
2026-04-25 17:39 25.07028 121.23552 100 ft 159 kts 49°
2026-04-25 17:39 25.07875 121.24612 168 ft 200 kts 48°
2026-04-25 17:39 25.08778 121.25776 716 ft 201 kts 50°
2026-04-25 17:40 25.09677 121.26965 1330 ft 201 kts 49°
2026-04-25 17:40 25.10582 121.28155 1840 ft 207 kts 50°
2026-04-25 17:40 25.11558 121.29435 2017 ft 227 kts 49°
2026-04-25 17:40 25.12669 121.30759 2345 ft 243 kts 46°
2026-04-25 17:41 25.13868 121.32129 2844 ft 250 kts 46°
2026-04-25 17:41 25.15091 121.33517 3462 ft 254 kts 46°
2026-04-25 17:41 25.16339 121.34939 3997 ft 262 kts 46°
2026-04-25 17:41 25.17618 121.36404 4611 ft 267 kts 46°
2026-04-25 17:42 25.18914 121.37896 5218 ft 271 kts 45°
2026-04-25 17:42 25.20225 121.39401 5872 ft 273 kts 45°
2026-04-25 17:42 25.21557 121.40933 6421 ft 279 kts 44°
2026-04-25 17:42 25.22920 121.42501 6953 ft 286 kts 44°
2026-04-25 17:43 25.24312 121.44100 7477 ft 291 kts 45°
2026-04-25 17:43 25.25722 121.45724 8080 ft 294 kts 45°
2026-04-25 17:43 25.27125 121.47343 8651 ft 297 kts 45°
2026-04-25 17:43 25.28525 121.49078 9133 ft 301 kts 57°
2026-04-25 17:44 25.29224 121.51232 9491 ft 308 kts 88°
2026-04-25 17:44 25.28997 121.53580 9940 ft 308 kts 101°
2026-04-25 17:44 25.28999 121.55960 10223 ft 319 kts 78°
2026-04-25 17:44 25.29558 121.58400 10387 ft 337 kts 75°
2026-04-25 17:45 25.30175 121.60981 10547 ft 357 kts 76°
2026-04-25 17:45 25.30592 121.62808 10644 ft 370 kts 76°
2026-04-25 17:45 25.31409 121.66603 10930 ft 394 kts 77°
2026-04-25 17:45 25.32022 121.69602 11379 ft 405 kts 78°
2026-04-25 17:46 25.32631 121.72664 11941 ft 411 kts 78°
2026-04-25 17:46 25.33241 121.75774 12594 ft 416 kts 79°
2026-04-25 17:46 25.33855 121.78926 13198 ft 423 kts 79°
2026-04-25 17:46 25.34476 121.82129 13809 ft 428 kts 79°
2026-04-25 17:47 25.35101 121.85361 14436 ft 433 kts 79°
2026-04-25 17:47 25.35735 121.88638 14999 ft 439 kts 79°
2026-04-25 17:47 25.36377 121.91959 15576 ft 444 kts 79°
2026-04-25 17:47 25.37025 121.95318 16169 ft 449 kts 79°
2026-04-25 17:48 25.38342 122.02151 17288 ft 460 kts 79°
2026-04-25 17:48 25.39011 122.05623 17855 ft 464 kts 79°
2026-04-25 17:48 25.39686 122.09128 18404 ft 468 kts 79°
2026-04-25 17:49 25.40364 122.12667 18916 ft 473 kts 79°
2026-04-25 17:49 25.41051 122.16252 19392 ft 478 kts 79°
2026-04-25 17:49 25.41743 122.19871 19845 ft 484 kts 79°
2026-04-25 17:49 25.42588 122.23492 20301 ft 490 kts 73°
2026-04-25 17:50 25.43719 122.27068 20764 ft 495 kts 69°
2026-04-25 17:50 25.44985 122.30621 21247 ft 499 kts 68°
2026-04-25 17:50 25.46290 122.34191 21683 ft 503 kts 68°
2026-04-25 17:50 25.47590 122.37808 22097 ft 508 kts 69°
2026-04-25 17:51 25.48869 122.41468 22497 ft 512 kts 70°
2026-04-25 17:51 25.50130 122.45168 22897 ft 516 kts 70°
2026-04-25 17:51 25.51384 122.48907 23319 ft 519 kts 70°
2026-04-25 17:51 25.52637 122.52673 23687 ft 524 kts 70°
2026-04-25 17:52 25.53898 122.56470 24050 ft 527 kts 70°
2026-04-25 17:52 25.54739 122.58999 24290 ft 530 kts 70°
2026-04-25 17:52 25.56432 122.64088 24801 ft 533 kts 71°
2026-04-25 17:52 25.57718 122.67947 25204 ft 535 kts 71°
2026-04-25 17:53 25.59010 122.71828 25579 ft 538 kts 71°
2026-04-25 17:53 25.60307 122.75729 25934 ft 541 kts 71°
2026-04-25 17:53 25.61609 122.79652 26296 ft 543 kts 71°
2026-04-25 17:53 25.62918 122.83594 26658 ft 545 kts 71°
2026-04-25 17:54 25.64229 122.87546 26992 ft 548 kts 71°
2026-04-25 17:54 25.65558 122.91517 27307 ft 551 kts 71°
2026-04-25 17:54 25.66903 122.95504 27617 ft 553 kts 71°
2026-04-25 17:54 25.68257 122.99504 27946 ft 555 kts 71°
2026-04-25 17:55 25.69576 123.03405 28221 ft 558 kts 71°
2026-04-25 17:55 25.70938 123.07445 28483 ft 560 kts 71°
2026-04-25 17:55 25.72303 123.11501 28743 ft 563 kts 72°
2026-04-25 17:55 25.73671 123.15576 29022 ft 564 kts 72°
2026-04-25 17:56 25.75038 123.19657 29361 ft 564 kts 72°
2026-04-25 17:56 25.76402 123.23732 29755 ft 563 kts 72°
2026-04-25 17:56 25.77762 123.27797 30150 ft 562 kts 72°
2026-04-25 17:56 25.79120 123.31863 30442 ft 563 kts 72°
2026-04-25 17:57 25.80482 123.35945 30724 ft 564 kts 72°
2026-04-25 17:57 25.81828 123.39983 30937 ft 566 kts 72°
2026-04-25 17:57 25.83215 123.44146 30975 ft 569 kts 72°
2026-04-25 17:58 25.85945 123.52351 30977 ft 562 kts 72°
2026-04-25 17:58 25.87629 123.56203 30977 ft 565 kts 56°
2026-04-25 17:58 25.90148 123.59553 31001 ft 567 kts 41°
2026-04-25 17:58 25.93275 123.62174 30981 ft 564 kts 25°
2026-04-25 17:59 25.96810 123.63978 31004 ft 557 kts 19°
2026-04-25 17:59 26.03953 123.67450 30985 ft 564 kts 20°
2026-04-25 18:00 26.11108 123.71131 30977 ft 568 kts 21°
2026-04-25 18:00 26.18251 123.74897 30967 ft 567 kts 21°
2026-04-25 18:01 26.25369 123.78649 30964 ft 564 kts 21°
2026-04-25 18:01 26.32448 123.82372 30974 ft 561 kts 21°
2026-04-25 18:02 26.39502 123.86074 30977 ft 559 kts 21°
2026-04-25 18:02 26.46488 123.89752 30980 ft 559 kts 21°
2026-04-25 18:03 26.53522 123.93459 30986 ft 560 kts 21°
2026-04-25 18:03 26.60570 123.97181 30986 ft 561 kts 21°
2026-04-25 18:04 26.67236 124.01478 30965 ft 568 kts 41°
2026-04-25 18:04 26.72318 124.08207 30983 ft 568 kts 52°
2026-04-25 18:05 26.77230 124.15161 30993 ft 571 kts 51°
2026-04-25 18:05 26.82296 124.22045 30986 ft 574 kts 50°
2026-04-25 18:06 26.87424 124.28906 30979 ft 574 kts 50°
2026-04-25 18:06 26.92531 124.35777 30980 ft 573 kts 50°
2026-04-25 18:07 26.97622 124.42657 30976 ft 572 kts 50°
2026-04-25 18:07 27.02700 124.49505 30981 ft 571 kts 50°
2026-04-25 18:08 27.07789 124.56362 30970 ft 572 kts 50°
2026-04-25 18:08 27.12852 124.63197 30964 ft 574 kts 50°
2026-04-25 18:09 27.17956 124.70107 30969 ft 576 kts 50°
2026-04-25 18:09 27.23084 124.77057 30970 ft 578 kts 51°
2026-04-25 18:10 27.28218 124.84029 30965 ft 579 kts 51°
2026-04-25 18:10 27.33348 124.91007 30959 ft 579 kts 51°
2026-04-25 18:11 27.38483 124.98001 30964 ft 579 kts 51°
2026-04-25 18:11 27.43550 125.04883 30961 ft 578 kts 50°
2026-04-25 18:12 27.48664 125.11774 30972 ft 577 kts 50°
2026-04-25 18:12 27.53818 125.18720 30966 ft 577 kts 50°
2026-04-25 18:13 27.58957 125.25669 30979 ft 577 kts 50°
2026-04-25 18:13 27.64088 125.32628 30984 ft 577 kts 50°
2026-04-25 18:14 27.71786 125.43095 30979 ft 579 kts 50°
2026-04-25 18:14 27.76921 125.50091 30985 ft 579 kts 50°
2026-04-25 18:15 27.82068 125.57110 30982 ft 580 kts 50°
2026-04-25 18:15 27.87210 125.64135 30985 ft 580 kts 50°
2026-04-25 18:16 27.92344 125.71162 30989 ft 580 kts 50°
2026-04-25 18:17 28.00044 125.81720 30992 ft 580 kts 51°
2026-04-25 18:17 28.05175 125.88772 30991 ft 580 kts 51°
2026-04-25 18:18 28.10311 125.95840 30990 ft 581 kts 51°
2026-04-25 18:18 28.15353 126.02795 30990 ft 580 kts 51°
2026-04-25 18:19 28.20453 126.09837 30991 ft 580 kts 51°
2026-04-25 18:19 28.25482 126.16791 30989 ft 580 kts 51°
2026-04-25 18:20 28.30597 126.23880 30992 ft 580 kts 51°
2026-04-25 18:20 28.35672 126.30925 30989 ft 581 kts 51°
2026-04-25 18:21 28.40821 126.38082 30992 ft 581 kts 51°
2026-04-25 18:21 28.45932 126.45200 30990 ft 582 kts 51°
2026-04-25 18:22 28.51027 126.52310 30996 ft 582 kts 51°
2026-04-25 18:22 28.56150 126.59467 31003 ft 583 kts 51°
2026-04-25 18:23 28.61271 126.66635 30999 ft 583 kts 51°
2026-04-25 18:23 28.66371 126.73785 30996 ft 584 kts 51°
2026-04-25 18:24 28.71492 126.80979 30997 ft 584 kts 51°
2026-04-25 18:24 28.76574 126.88126 31000 ft 584 kts 51°
2026-04-25 18:25 28.81683 126.95326 30999 ft 584 kts 51°
2026-04-25 18:25 28.85894 127.01270 30992 ft 585 kts 51°
2026-04-25 18:26 28.90975 127.08455 30989 ft 584 kts 51°
2026-04-25 18:26 28.96108 127.15727 30995 ft 584 kts 51°
2026-04-25 18:27 29.01154 127.22890 31002 ft 584 kts 51°
2026-04-25 18:27 29.06267 127.30148 30997 ft 584 kts 51°
2026-04-25 18:28 29.11351 127.37386 30999 ft 584 kts 51°
2026-04-25 18:28 29.16439 127.44647 30998 ft 585 kts 51°
2026-04-25 18:29 29.24068 127.55551 30997 ft 585 kts 51°
2026-04-25 18:30 29.34221 127.70111 31001 ft 586 kts 51°
2026-04-25 18:30 29.39306 127.77418 31001 ft 586 kts 51°
2026-04-25 18:31 29.44366 127.84708 31000 ft 586 kts 51°
2026-04-25 18:31 29.49432 127.92016 30991 ft 586 kts 51°
2026-04-25 18:32 29.54503 127.99347 30991 ft 586 kts 51°
2026-04-25 18:32 29.59505 128.06576 30990 ft 586 kts 51°
2026-04-25 18:33 29.64549 128.13876 30988 ft 585 kts 51°
2026-04-25 18:33 29.69614 128.21222 30992 ft 585 kts 51°
2026-04-25 18:34 29.74667 128.28567 30990 ft 585 kts 51°
2026-04-25 18:34 29.79716 128.35921 30992 ft 585 kts 51°
2026-04-25 18:35 29.84753 128.43265 30994 ft 585 kts 51°
2026-04-25 18:35 29.89799 128.50640 30990 ft 585 kts 51°
2026-04-25 18:36 29.94847 128.58032 30997 ft 585 kts 51°
2026-04-25 18:36 29.99885 128.65418 31002 ft 585 kts 51°
2026-04-25 18:37 30.04903 128.72796 30993 ft 586 kts 51°
2026-04-25 18:37 30.09939 128.80212 31004 ft 587 kts 51°
2026-04-25 18:38 30.14937 128.87577 31002 ft 588 kts 51°
2026-04-25 18:38 30.19982 128.95034 31006 ft 589 kts 51°
2026-04-25 18:39 30.24981 129.02431 30999 ft 590 kts 51°
2026-04-25 18:39 30.29998 129.09859 31001 ft 591 kts 51°
2026-04-25 18:40 30.35068 129.17405 31001 ft 590 kts 51°
2026-04-25 18:40 30.40098 129.24891 30996 ft 590 kts 51°
2026-04-25 18:41 30.45123 129.32377 31010 ft 589 kts 51°
2026-04-25 18:41 30.50129 129.39864 31010 ft 588 kts 51°
2026-04-25 18:42 30.54297 129.46100 31010 ft 588 kts 51°
2026-04-25 18:42 30.60134 129.54844 31031 ft 587 kts 52°
2026-04-25 18:43 30.65147 129.62371 31039 ft 588 kts 52°
2026-04-25 18:43 30.70123 129.69870 31051 ft 589 kts 52°
2026-04-25 18:44 30.75142 129.77443 31040 ft 590 kts 52°
2026-04-25 18:44 30.80133 129.84983 31049 ft 590 kts 52°
2026-04-25 18:45 30.85105 129.92604 31049 ft 591 kts 56°
2026-04-25 18:45 30.89442 130.00572 31052 ft 591 kts 59°
2026-04-25 18:46 30.93684 130.08758 31083 ft 593 kts 59°
2026-04-25 18:46 30.95839 130.12899 31296 ft 595 kts 59°
2026-04-25 18:46 30.97996 130.17006 31659 ft 594 kts 59°
2026-04-25 18:47 31.00149 130.21082 32015 ft 593 kts 59°
2026-04-25 18:47 31.02327 130.25194 32316 ft 593 kts 59°
2026-04-25 18:47 31.04496 130.29290 32585 ft 593 kts 59°
2026-04-25 18:47 31.06651 130.33362 32837 ft 594 kts 59°
2026-04-25 18:48 31.08823 130.37474 32986 ft 595 kts 59°
2026-04-25 18:48 31.10990 130.41585 33023 ft 596 kts 59°
2026-04-25 18:48 31.15323 130.49825 33054 ft 594 kts 59°
2026-04-25 18:49 31.19642 130.58052 33060 ft 592 kts 59°
2026-04-25 18:49 31.23918 130.66212 33057 ft 591 kts 59°
2026-04-25 18:50 31.28180 130.74373 33075 ft 590 kts 59°
2026-04-25 18:50 31.32465 130.82606 33081 ft 590 kts 59°
2026-04-25 18:51 31.36016 130.89423 33075 ft 591 kts 59°
2026-04-25 18:51 31.41000 130.99009 33078 ft 592 kts 59°
2026-04-25 18:52 31.45193 131.07107 33073 ft 592 kts 59°
2026-04-25 18:52 31.49488 131.15423 33068 ft 593 kts 59°
2026-04-25 18:53 31.53760 131.23699 33062 ft 594 kts 59°
2026-04-25 18:53 31.58007 131.31938 33059 ft 593 kts 59°
2026-04-25 18:54 31.64387 131.44391 33053 ft 593 kts 59°
2026-04-25 18:55 31.68602 131.52641 33057 ft 592 kts 59°
2026-04-25 18:55 31.72842 131.60941 33039 ft 591 kts 59°
2026-04-25 18:56 31.77062 131.69227 33048 ft 591 kts 59°
2026-04-25 18:56 31.81266 131.77510 33048 ft 592 kts 59°
2026-04-25 18:57 31.85481 131.85832 33056 ft 592 kts 59°
2026-04-25 18:57 31.89681 131.94139 33052 ft 592 kts 59°
2026-04-25 18:58 31.93848 132.02395 33048 ft 593 kts 59°
2026-04-25 18:58 32.00123 132.14869 33042 ft 592 kts 59°
2026-04-25 18:59 32.08488 132.31564 33054 ft 592 kts 59°
2026-04-25 19:00 32.14579 132.44244 33054 ft 592 kts 64°
2026-04-25 19:01 32.20062 132.57313 33065 ft 593 kts 65°
2026-04-25 19:01 32.23707 132.66043 33071 ft 594 kts 64°
2026-04-25 19:02 32.29246 132.79186 33068 ft 596 kts 64°
2026-04-25 19:03 32.33560 132.89440 33073 ft 597 kts 64°
2026-04-25 19:03 32.38413 133.01013 33075 ft 598 kts 65°
2026-04-25 19:04 32.43946 133.14278 33082 ft 597 kts 65°
2026-04-25 19:05 32.51270 133.31896 33082 ft 598 kts 65°
2026-04-25 19:06 32.54942 133.40769 33083 ft 599 kts 65°
2026-04-25 19:06 32.60448 133.54011 33083 ft 598 kts 64°
2026-04-25 19:07 32.65985 133.67365 33093 ft 598 kts 65°
2026-04-25 19:08 32.71386 133.80640 33087 ft 596 kts 65°
2026-04-25 19:09 32.77383 133.95407 33090 ft 595 kts 65°
2026-04-25 19:10 32.83443 134.11653 33098 ft 590 kts 76°
2026-04-25 19:10 32.85727 134.21000 33110 ft 589 kts 77°
2026-04-25 19:11 32.87588 134.28796 33102 ft 590 kts 77°
2026-04-25 19:11 32.89897 134.38230 33100 ft 590 kts 77°
2026-04-25 19:12 32.92211 134.47527 33105 ft 590 kts 77°
2026-04-25 19:12 32.94538 134.56916 33096 ft 591 kts 77°
2026-04-25 19:13 32.96840 134.66291 33103 ft 591 kts 77°
2026-04-25 19:13 32.99146 134.75707 33101 ft 591 kts 77°
2026-04-25 19:14 33.00817 134.85230 33103 ft 585 kts 88°
2026-04-25 19:14 33.01774 134.94816 33108 ft 584 kts 88°
2026-04-25 19:15 33.02750 135.04336 33102 ft 586 kts 87°
2026-04-25 19:15 33.03802 135.13926 33101 ft 586 kts 87°
2026-04-25 19:16 33.04842 135.23550 33099 ft 586 kts 87°
2026-04-25 19:16 33.05859 135.33206 33104 ft 585 kts 88°
2026-04-25 19:17 33.06865 135.42819 33100 ft 585 kts 87°
2026-04-25 19:17 33.07870 135.52456 33102 ft 585 kts 88°
2026-04-25 19:18 33.08869 135.62086 33110 ft 584 kts 88°
2026-04-25 19:18 33.09853 135.71674 33111 ft 584 kts 88°
2026-04-25 19:19 33.10832 135.81324 33110 ft 584 kts 88°
2026-04-25 19:19 33.11798 135.90919 33112 ft 584 kts 88°
2026-04-25 19:20 33.12739 136.00344 33112 ft 584 kts 88°
2026-04-25 19:20 33.13699 136.10003 33110 ft 584 kts 88°
2026-04-25 19:21 33.14638 136.19558 33112 ft 583 kts 88°
2026-04-25 19:21 33.16045 136.33970 33119 ft 582 kts 88°
2026-04-25 19:22 33.16970 136.43591 33121 ft 582 kts 88°
2026-04-25 19:23 33.18351 136.57975 33122 ft 583 kts 88°
2026-04-25 19:23 33.19729 136.72433 33131 ft 582 kts 88°
2026-04-25 19:24 33.20636 136.82045 33129 ft 583 kts 88°
2026-04-25 19:25 33.22412 137.01118 33148 ft 583 kts 88°
2026-04-25 19:25 33.23491 137.10706 33180 ft 587 kts 82°
2026-04-25 19:26 33.25661 137.20105 33184 ft 590 kts 75°
2026-04-25 19:26 33.28109 137.29467 33176 ft 590 kts 75°
2026-04-25 19:27 33.30108 137.37318 33180 ft 590 kts 75°
2026-04-25 19:27 33.32840 137.48333 33179 ft 590 kts 76°
2026-04-25 19:28 33.35151 137.57726 33178 ft 590 kts 76°
2026-04-25 19:28 33.37460 137.67111 33182 ft 590 kts 76°
2026-04-25 19:29 33.39776 137.76554 33177 ft 590 kts 76°
2026-04-25 19:29 33.42109 137.85974 33165 ft 591 kts 73°
2026-04-25 19:30 33.45270 137.95034 33176 ft 592 kts 62°
2026-04-25 19:30 33.49474 138.03284 33177 ft 590 kts 55°
2026-04-25 19:31 33.53911 138.11600 33180 ft 591 kts 57°
2026-04-25 19:31 33.58193 138.19978 33175 ft 592 kts 57°
2026-04-25 19:32 33.62460 138.28394 33190 ft 592 kts 57°
2026-04-25 19:32 33.66056 138.35460 33198 ft 593 kts 57°
2026-04-25 19:33 33.71064 138.45299 33192 ft 593 kts 57°
2026-04-25 19:33 33.75369 138.53788 33190 ft 593 kts 57°
2026-04-25 19:34 33.79654 138.62247 33192 ft 593 kts 57°
2026-04-25 19:34 33.83944 138.70738 33190 ft 592 kts 57°
2026-04-25 19:35 33.88195 138.79174 33193 ft 592 kts 57°
2026-04-25 19:35 33.92445 138.87630 33195 ft 591 kts 57°
2026-04-25 19:36 33.96688 138.96092 33193 ft 591 kts 57°
2026-04-25 19:36 34.00859 139.04421 33191 ft 590 kts 57°
2026-04-25 19:37 34.05094 139.12918 33192 ft 591 kts 57°
2026-04-25 19:37 34.09315 139.21382 33211 ft 592 kts 57°
2026-04-25 19:38 34.13572 139.29953 33205 ft 594 kts 57°
2026-04-25 19:38 34.17814 139.38498 33205 ft 594 kts 57°
2026-04-25 19:39 34.22055 139.47066 33215 ft 595 kts 57°
2026-04-25 19:39 34.26295 139.55649 33227 ft 595 kts 57°
2026-04-25 19:40 34.30508 139.64208 33242 ft 595 kts 57°
2026-04-25 19:40 34.34743 139.72828 33236 ft 594 kts 57°
2026-04-25 19:41 34.38945 139.81405 33239 ft 593 kts 57°
2026-04-25 19:41 34.41749 139.87134 33235 ft 593 kts 57°
2026-04-25 19:42 34.47360 139.98632 33227 ft 593 kts 57°
2026-04-25 19:42 34.51475 140.07091 33231 ft 593 kts 57°
2026-04-25 19:43 34.55665 140.15725 33230 ft 592 kts 57°
2026-04-25 19:43 34.59831 140.24328 33229 ft 593 kts 57°
2026-04-25 19:44 34.63983 140.32923 33235 ft 593 kts 57°
2026-04-25 19:44 34.68153 140.41578 33238 ft 594 kts 57°
2026-04-25 19:45 34.72306 140.50310 33234 ft 595 kts 58°
2026-04-25 19:45 34.76351 140.59125 33231 ft 596 kts 59°
2026-04-25 19:46 34.80361 140.67935 33230 ft 597 kts 58°
2026-04-25 19:46 34.84380 140.76736 33230 ft 598 kts 58°
2026-04-25 19:47 34.88452 140.85644 33232 ft 598 kts 58°
2026-04-25 19:47 34.92460 140.94426 33231 ft 599 kts 58°
2026-04-25 19:48 34.96440 141.03167 33233 ft 599 kts 58°
2026-04-25 19:48 35.00470 141.12063 33229 ft 600 kts 58°
2026-04-25 19:49 35.03162 141.18018 33227 ft 599 kts 58°
2026-04-25 19:49 35.08523 141.29897 33229 ft 599 kts 58°
2026-04-25 19:50 35.14547 141.43287 33230 ft 599 kts 58°
2026-04-25 19:51 35.18541 141.52194 33233 ft 600 kts 58°
2026-04-25 19:51 35.22535 141.61131 33234 ft 600 kts 58°
2026-04-25 19:52 35.26539 141.70115 33232 ft 601 kts 58°
2026-04-25 19:52 35.30539 141.79108 33232 ft 601 kts 58°
2026-04-25 19:53 35.34510 141.88063 33220 ft 601 kts 58°
2026-04-25 19:53 35.38506 141.97103 33210 ft 602 kts 58°
2026-04-25 19:54 35.42406 142.05945 33202 ft 602 kts 58°
2026-04-25 19:54 35.46388 142.14986 33202 ft 602 kts 58°
2026-04-25 19:55 35.50349 142.24015 33200 ft 602 kts 58°
2026-04-25 19:55 35.54290 142.33025 33205 ft 602 kts 58°
2026-04-25 19:56 35.58239 142.42069 33211 ft 601 kts 58°
2026-04-25 19:56 35.62190 142.51145 33215 ft 601 kts 58°
2026-04-25 19:57 35.66128 142.60220 33210 ft 601 kts 58°
2026-04-25 19:57 35.70055 142.69291 33213 ft 601 kts 58°
2026-04-25 19:58 35.73978 142.78376 33212 ft 600 kts 58°
2026-04-25 19:58 35.77884 142.87450 33213 ft 600 kts 58°
2026-04-25 19:59 35.81762 142.96483 33211 ft 600 kts 58°
2026-04-25 19:59 35.85599 143.05441 33214 ft 600 kts 58°
2026-04-25 20:00 35.89501 143.14607 33212 ft 600 kts 60°
2026-04-25 20:00 35.92132 143.22567 33208 ft 604 kts 71°
2026-04-25 20:01 35.94804 143.39420 33210 ft 603 kts 85°
2026-04-25 20:01 35.95561 143.48022 33214 ft 604 kts 84°
2026-04-25 20:02 35.96610 143.58314 33211 ft 604 kts 83°
2026-04-25 20:02 35.97660 143.68558 33200 ft 605 kts 83°
2026-04-25 20:03 35.98694 143.78906 33204 ft 605 kts 84°
2026-04-25 20:03 35.99712 143.89217 33200 ft 605 kts 84°
2026-04-25 20:04 36.00724 143.99500 33202 ft 605 kts 84°
2026-04-25 20:04 36.01715 144.09627 33203 ft 606 kts 84°
2026-04-25 20:05 36.02714 144.19969 33200 ft 606 kts 84°
2026-04-25 20:05 36.03701 144.30319 33202 ft 606 kts 84°
2026-04-25 20:06 36.04678 144.40644 33198 ft 606 kts 84°
2026-04-25 20:06 36.05649 144.50987 33205 ft 605 kts 84°
2026-04-25 20:07 36.06611 144.61330 33201 ft 605 kts 84°
2026-04-25 20:07 36.07557 144.71604 33209 ft 606 kts 84°
2026-04-25 20:08 36.08509 144.82023 33214 ft 605 kts 84°
2026-04-25 20:08 36.09441 144.92364 33221 ft 605 kts 84°
2026-04-25 20:09 36.10348 145.02512 33211 ft 606 kts 84°
2026-04-25 20:09 36.11268 145.12875 33210 ft 606 kts 84°
2026-04-25 20:10 36.12179 145.23264 33213 ft 606 kts 85°
2026-04-25 20:10 36.13074 145.33580 33213 ft 606 kts 85°
2026-04-25 20:11 36.14472 145.43871 33212 ft 605 kts 73°
2026-04-25 20:11 36.17320 145.53603 33217 ft 601 kts 61°
2026-04-25 20:12 36.21338 145.62559 33221 ft 596 kts 54°
2026-04-25 20:12 36.24863 145.69956 33214 ft 597 kts 54°
2026-04-25 20:13 36.29712 145.80304 33214 ft 598 kts 55°
2026-04-25 20:13 36.33849 145.89313 33223 ft 598 kts 56°
2026-04-25 20:14 36.37944 145.98300 33229 ft 599 kts 56°
2026-04-25 20:14 36.41975 146.07152 33235 ft 599 kts 56°
2026-04-25 20:15 36.46057 146.16120 33228 ft 599 kts 56°
2026-04-25 20:15 36.50144 146.25124 33233 ft 599 kts 56°
2026-04-25 20:16 36.54250 146.34201 33220 ft 599 kts 56°
2026-04-25 20:16 36.58322 146.43221 33221 ft 598 kts 56°
2026-04-25 20:17 36.62396 146.52268 33222 ft 598 kts 56°
2026-04-25 20:17 36.66436 146.61274 33219 ft 598 kts 56°
2026-04-25 20:18 36.70499 146.70351 33222 ft 598 kts 56°
2026-04-25 20:18 36.74525 146.79373 33220 ft 599 kts 56°
2026-04-25 20:19 36.78584 146.88484 33222 ft 598 kts 56°
2026-04-25 20:19 36.82607 146.97547 33220 ft 598 kts 56°
2026-04-25 20:20 36.86545 147.06444 33221 ft 598 kts 56°
2026-04-25 20:20 36.90586 147.15593 33222 ft 598 kts 56°
2026-04-25 20:21 36.94605 147.24717 33224 ft 599 kts 56°
2026-04-25 20:21 36.98592 147.33792 33222 ft 599 kts 56°
2026-04-25 20:22 37.01912 147.41382 33220 ft 598 kts 56°
2026-04-25 20:22 37.06579 147.52075 33219 ft 598 kts 56°
2026-04-25 20:23 37.10553 147.61196 33223 ft 599 kts 56°
2026-04-25 20:23 37.14542 147.70380 33223 ft 599 kts 56°
2026-04-25 20:24 37.18521 147.79554 33185 ft 601 kts 56°
2026-04-25 20:24 37.22484 147.88754 33182 ft 601 kts 56°
2026-04-25 20:25 37.26458 147.98000 33163 ft 600 kts 56°
2026-04-25 20:25 37.30356 148.07076 33181 ft 598 kts 56°
2026-04-25 20:26 37.34295 148.16274 33176 ft 598 kts 56°
2026-04-25 20:26 37.38224 148.25469 33165 ft 597 kts 56°
2026-04-25 20:27 37.42155 148.34692 33164 ft 598 kts 56°
2026-04-25 20:27 37.46062 148.43931 33175 ft 599 kts 56°
2026-04-25 20:28 37.49953 148.53173 33176 ft 599 kts 56°
2026-04-25 20:28 37.53896 148.62415 33152 ft 601 kts 56°
2026-04-25 20:29 37.57825 148.71702 33176 ft 601 kts 56°
2026-04-25 20:29 37.61735 148.81069 33151 ft 602 kts 56°
2026-04-25 20:30 37.65607 148.90382 33171 ft 602 kts 56°
2026-04-25 20:30 37.69491 148.99664 33145 ft 599 kts 56°
2026-04-25 20:31 37.73309 149.08885 33152 ft 599 kts 56°
2026-04-25 20:31 37.77173 149.18212 33170 ft 601 kts 56°
2026-04-25 20:32 37.81049 149.27564 33143 ft 601 kts 56°
2026-04-25 20:32 37.84909 149.36917 33171 ft 600 kts 56°
2026-04-25 20:33 37.88758 149.46292 33166 ft 601 kts 56°
2026-04-25 20:33 37.91970 149.54136 33171 ft 602 kts 56°
2026-04-25 20:34 37.96439 149.65086 33174 ft 604 kts 55°
2026-04-25 20:34 38.00285 149.74560 33151 ft 602 kts 56°
2026-04-25 20:35 38.04147 149.84024 33133 ft 603 kts 56°
2026-04-25 20:35 38.07962 149.93470 33144 ft 601 kts 56°
2026-04-25 20:36 38.11722 150.02730 33147 ft 601 kts 54°
2026-04-25 20:36 38.15825 150.11918 33157 ft 596 kts 52°
2026-04-25 20:37 38.20081 150.20986 33146 ft 595 kts 51°
2026-04-25 20:37 38.24281 150.30100 33150 ft 596 kts 53°
2026-04-25 20:38 38.28350 150.39195 33141 ft 594 kts 52°
2026-04-25 20:38 38.32475 150.48331 33150 ft 592 kts 52°
2026-04-25 20:39 38.36567 150.57381 33147 ft 590 kts 52°
2026-04-25 20:39 38.39305 150.63473 33168 ft 591 kts 53°
2026-04-25 20:40 38.44705 150.75580 33147 ft 591 kts 53°
2026-04-25 20:40 38.48758 150.84687 33146 ft 590 kts 53°
2026-04-25 20:41 38.52821 150.93811 33147 ft 587 kts 53°
2026-04-25 20:41 38.56752 151.02674 33142 ft 586 kts 53°
2026-04-25 20:42 38.60758 151.11756 33148 ft 587 kts 53°
2026-04-25 20:42 38.64765 151.20851 33157 ft 588 kts 54°
2026-04-25 20:43 38.68787 151.30046 33161 ft 588 kts 54°
2026-04-25 20:43 38.72776 151.39150 33149 ft 586 kts 54°
2026-04-25 20:44 38.76742 151.48226 33151 ft 586 kts 54°
2026-04-25 20:44 38.80702 151.57344 33146 ft 586 kts 54°
2026-04-25 20:45 38.84667 151.66489 33152 ft 585 kts 54°
2026-04-25 20:45 38.88602 151.75572 33142 ft 584 kts 54°
2026-04-25 20:46 38.92521 151.84649 33148 ft 582 kts 54°
2026-04-25 20:46 38.96443 151.93783 33147 ft 581 kts 54°
2026-04-25 20:47 39.00265 152.02693 33148 ft 580 kts 54°
2026-04-25 20:47 39.04130 152.11740 33145 ft 579 kts 54°
2026-04-25 20:48 39.07994 152.20796 33147 ft 577 kts 54°
2026-04-25 20:48 39.11851 152.29857 33149 ft 575 kts 54°
2026-04-25 20:49 39.15669 152.38862 33147 ft 574 kts 54°
2026-04-25 20:49 39.19495 152.47915 33145 ft 574 kts 55°
2026-04-25 20:50 39.23296 152.56931 33139 ft 573 kts 55°
2026-04-25 20:50 39.27096 152.65972 33139 ft 574 kts 55°
2026-04-25 20:51 39.30265 152.73529 33142 ft 574 kts 55°
2026-04-25 20:51 39.34089 152.82677 33139 ft 575 kts 55°
2026-04-25 20:52 39.37232 152.90210 33136 ft 574 kts 55°
2026-04-25 20:52 39.41576 153.00676 33136 ft 574 kts 55°
2026-04-25 20:53 39.45953 153.11244 33143 ft 574 kts 56°
2026-04-25 20:53 39.49096 153.18836 33141 ft 574 kts 56°
2026-04-25 20:54 39.52843 153.27939 33144 ft 574 kts 56°
2026-04-25 20:54 39.56601 153.37092 33142 ft 573 kts 56°
2026-04-25 20:55 39.60347 153.46246 33138 ft 572 kts 56°
2026-04-25 20:55 39.64038 153.55304 33126 ft 570 kts 56°
2026-04-25 20:56 39.67742 153.64391 33130 ft 568 kts 56°
2026-04-25 20:56 39.71420 153.73440 33128 ft 566 kts 56°
2026-04-25 20:57 39.75060 153.82452 33128 ft 564 kts 56°
2026-04-25 20:57 39.78717 153.91516 33128 ft 562 kts 56°
2026-04-25 20:58 39.82278 154.00368 33130 ft 562 kts 56°
2026-04-25 20:58 39.85896 154.09383 33124 ft 560 kts 56°
2026-04-25 20:59 39.89482 154.18349 33135 ft 561 kts 56°
2026-04-25 20:59 39.93085 154.27405 33133 ft 564 kts 56°
2026-04-25 21:00 39.96077 154.34932 33129 ft 566 kts 56°
2026-04-25 21:01 40.02110 154.50150 33126 ft 567 kts 56°
2026-04-25 21:01 40.05721 154.59302 33117 ft 566 kts 57°
2026-04-25 21:02 40.09293 154.68388 33117 ft 564 kts 56°
2026-04-25 21:02 40.12853 154.77479 33117 ft 562 kts 56°
2026-04-25 21:03 40.16411 154.86594 33114 ft 559 kts 56°
2026-04-25 21:03 40.19924 154.95579 33120 ft 558 kts 56°
2026-04-25 21:04 40.23399 155.04519 33123 ft 559 kts 56°
2026-04-25 21:04 40.26928 155.13654 33121 ft 561 kts 56°
2026-04-25 21:05 40.30460 155.22792 33123 ft 563 kts 56°
2026-04-25 21:05 40.33971 155.31907 33124 ft 565 kts 56°
2026-04-25 21:06 40.37524 155.41175 33121 ft 566 kts 56°
2026-04-25 21:06 40.41035 155.50353 33111 ft 567 kts 56°
2026-04-25 21:07 40.44580 155.59651 33107 ft 568 kts 56°
2026-04-25 21:07 40.48114 155.68927 33111 ft 568 kts 57°
2026-04-25 21:08 40.51609 155.78169 33123 ft 566 kts 57°
2026-04-25 21:08 40.55071 155.87355 33101 ft 555 kts 57°
2026-04-25 21:09 40.60156 156.00868 33114 ft 555 kts 57°
2026-04-25 21:09 40.63573 156.09981 33111 ft 556 kts 57°
2026-04-25 21:10 40.67014 156.19152 33115 ft 558 kts 57°
2026-04-25 21:10 40.70429 156.28336 33112 ft 559 kts 57°
2026-04-25 21:11 40.73827 156.37503 33096 ft 557 kts 57°
2026-04-25 21:11 40.77226 156.46677 33103 ft 555 kts 57°
2026-04-25 21:12 40.80610 156.55852 33096 ft 554 kts 57°
2026-04-25 21:12 40.83418 156.63484 33096 ft 553 kts 57°
2026-04-25 21:13 40.87303 156.74082 33098 ft 551 kts 57°
2026-04-25 21:13 40.90651 156.83229 33103 ft 549 kts 57°
2026-04-25 21:14 40.93958 156.92308 33099 ft 549 kts 57°
2026-04-25 21:14 40.97225 157.01313 33108 ft 550 kts 57°
2026-04-25 21:15 41.00507 157.10369 33092 ft 550 kts 57°
2026-04-25 21:15 41.03819 157.19543 33094 ft 551 kts 57°
2026-04-25 21:16 41.07101 157.28664 33091 ft 551 kts 57°
2026-04-25 21:16 41.10401 157.37867 33092 ft 551 kts 57°
2026-04-25 21:17 41.13676 157.47034 33091 ft 551 kts 57°
2026-04-25 21:17 41.16960 157.56242 33092 ft 550 kts 57°
2026-04-25 21:18 41.20213 157.65406 33094 ft 549 kts 57°
2026-04-25 21:18 41.23448 157.74548 33093 ft 549 kts 57°
2026-04-25 21:19 41.26702 157.83773 33085 ft 548 kts 57°
2026-04-25 21:19 41.29932 157.92953 33082 ft 547 kts 57°
2026-04-25 21:20 41.32552 158.00427 33083 ft 547 kts 57°
2026-04-25 21:20 41.36282 158.11092 33081 ft 545 kts 57°
2026-04-25 21:21 41.39475 158.20264 33081 ft 543 kts 57°
2026-04-25 21:21 41.42636 158.29364 33083 ft 543 kts 57°
2026-04-25 21:22 41.45808 158.38524 33085 ft 543 kts 57°
2026-04-25 21:22 41.48948 158.47629 33085 ft 544 kts 57°
2026-04-25 21:23 41.52110 158.56829 33022 ft 546 kts 58°
2026-04-25 21:23 41.55279 158.66071 32930 ft 547 kts 58°
2026-04-25 21:24 41.58422 158.75272 32912 ft 547 kts 58°
2026-04-25 21:24 41.61583 158.84560 32902 ft 545 kts 58°
2026-04-25 21:25 41.64711 158.93777 32902 ft 544 kts 58°
2026-04-25 21:25 41.67759 159.02793 32908 ft 544 kts 58°
2026-04-25 21:26 41.70861 159.12013 32897 ft 544 kts 58°
2026-04-25 21:26 41.73975 159.21270 32901 ft 545 kts 58°
2026-04-25 21:27 41.77076 159.30528 32894 ft 545 kts 58°
2026-04-25 21:27 41.80171 159.39812 32900 ft 545 kts 58°
2026-04-25 21:28 41.83264 159.49108 32897 ft 545 kts 58°
2026-04-25 21:28 41.86333 159.58370 32887 ft 544 kts 58°
2026-04-25 21:29 41.89380 159.67599 32887 ft 543 kts 59°
2026-04-25 21:29 41.92424 159.76845 32885 ft 542 kts 58°
2026-04-25 21:30 41.95459 159.86094 32889 ft 541 kts 59°
2026-04-25 21:30 41.97996 159.93851 32883 ft 540 kts 59°
2026-04-25 21:31 42.01255 160.04624 32882 ft 545 kts 64°
2026-04-25 21:31 42.03653 160.14261 32886 ft 547 kts 65°
2026-04-25 21:32 42.06025 160.24023 32882 ft 547 kts 65°
2026-04-25 21:32 42.08416 160.33767 32881 ft 547 kts 65°
2026-04-25 21:33 42.10810 160.43450 32880 ft 547 kts 65°
2026-04-25 21:33 42.13201 160.53169 32876 ft 547 kts 65°
2026-04-25 21:34 42.15594 160.62931 32871 ft 547 kts 66°
2026-04-25 21:34 42.17958 160.72617 32867 ft 546 kts 66°
2026-04-25 21:35 42.20316 160.82325 32871 ft 546 kts 66°
2026-04-25 21:35 42.22676 160.92080 32867 ft 546 kts 66°
2026-04-25 21:36 42.24984 161.01662 32870 ft 545 kts 67°
2026-04-25 21:36 42.27326 161.11425 32862 ft 546 kts 67°
2026-04-25 21:37 42.28871 161.17887 32861 ft 546 kts 67°
2026-04-25 21:37 42.31584 161.29280 32856 ft 546 kts 68°
2026-04-25 21:38 42.34284 161.40679 32860 ft 546 kts 68°
2026-04-25 21:38 42.36206 161.48831 32863 ft 546 kts 68°
2026-04-25 21:39 42.38495 161.58579 32862 ft 547 kts 68°
2026-04-25 21:39 42.40799 161.68426 32852 ft 547 kts 68°
2026-04-25 21:40 42.43085 161.78244 32850 ft 548 kts 68°
2026-04-25 21:40 42.45366 161.88086 32852 ft 549 kts 69°
2026-04-25 21:41 42.47651 161.97976 32848 ft 549 kts 69°
2026-04-25 21:41 42.49879 162.07691 32852 ft 549 kts 69°
2026-04-25 21:42 42.52142 162.17585 32849 ft 549 kts 69°
2026-04-25 21:42 42.54395 162.27456 32841 ft 549 kts 69°
2026-04-25 21:43 42.56638 162.37346 32839 ft 548 kts 69°
2026-04-25 21:43 42.58864 162.47217 32844 ft 548 kts 69°
2026-04-25 21:44 42.61075 162.57072 32844 ft 547 kts 69°
2026-04-25 21:45 42.64394 162.71916 32839 ft 547 kts 69°
2026-04-25 21:45 42.66591 162.81806 32831 ft 546 kts 69°
2026-04-25 21:46 42.68786 162.91725 32834 ft 546 kts 69°
2026-04-25 21:46 42.70925 163.01453 32834 ft 546 kts 69°
2026-04-25 21:47 42.73084 163.11312 32831 ft 547 kts 70°
2026-04-25 21:47 42.75246 163.21211 32836 ft 547 kts 70°
2026-04-25 21:48 42.77418 163.31219 32829 ft 548 kts 70°
2026-04-25 21:48 42.79565 163.41158 32821 ft 549 kts 70°
2026-04-25 21:49 42.81712 163.51138 32826 ft 550 kts 70°
2026-04-25 21:49 42.83840 163.61076 32823 ft 549 kts 70°
2026-04-25 21:50 42.85985 163.71153 32825 ft 550 kts 70°
2026-04-25 21:50 42.88100 163.81134 32822 ft 550 kts 70°
2026-04-25 21:51 42.90218 163.91172 32816 ft 550 kts 70°
2026-04-25 21:51 42.92294 164.01052 32813 ft 550 kts 70°
2026-04-25 21:52 42.94395 164.11105 32812 ft 551 kts 70°
2026-04-25 21:52 42.96482 164.21144 32815 ft 551 kts 70°
2026-04-25 21:53 42.98553 164.31147 32815 ft 552 kts 70°
2026-04-25 21:53 43.00634 164.41257 32812 ft 552 kts 70°
2026-04-25 21:54 43.02709 164.51385 32807 ft 553 kts 70°
2026-04-25 21:54 43.04776 164.61524 32803 ft 553 kts 70°
2026-04-25 21:55 43.06831 164.71653 32806 ft 554 kts 71°
2026-04-25 21:55 43.08884 164.81825 32803 ft 553 kts 71°
2026-04-25 21:56 43.10915 164.91945 32806 ft 554 kts 71°
2026-04-25 21:56 43.12907 165.01926 32801 ft 554 kts 71°
2026-04-25 21:57 43.14935 165.12117 32795 ft 555 kts 71°
2026-04-25 21:57 43.16970 165.22395 32797 ft 555 kts 71°
2026-04-25 21:58 43.18979 165.32599 32795 ft 556 kts 71°
2026-04-25 21:58 43.20976 165.42809 32870 ft 560 kts 71°
2026-04-25 21:58 43.21984 165.47986 33135 ft 561 kts 71°
2026-04-25 21:59 43.22985 165.53136 33453 ft 559 kts 71°
2026-04-25 21:59 43.23981 165.58269 33751 ft 558 kts 71°
2026-04-25 21:59 43.24982 165.63442 34052 ft 558 kts 71°
2026-04-25 22:00 43.26966 165.73725 34586 ft 558 kts 72°
2026-04-25 22:00 43.27948 165.78841 34736 ft 560 kts 72°
2026-04-25 22:00 43.29934 165.89227 34785 ft 561 kts 72°
2026-04-25 22:01 43.31895 165.99555 34776 ft 558 kts 72°
2026-04-25 22:01 43.33483 166.07954 34784 ft 557 kts 72°
2026-04-25 22:02 43.35749 166.19994 34776 ft 556 kts 72°
2026-04-25 22:02 43.37667 166.30236 34781 ft 556 kts 72°
2026-04-25 22:03 43.39585 166.40552 34776 ft 558 kts 72°
2026-04-25 22:03 43.41509 166.50949 34782 ft 560 kts 72°
2026-04-25 22:04 43.43425 166.61361 34775 ft 561 kts 72°
2026-04-25 22:04 43.45320 166.71699 34773 ft 562 kts 73°
2026-04-25 22:05 43.47230 166.82205 34708 ft 564 kts 73°
2026-04-25 22:05 43.49124 166.92690 34712 ft 564 kts 73°
2026-04-25 22:06 43.50964 167.02924 34708 ft 563 kts 73°
2026-04-25 22:06 43.52855 167.13484 34711 ft 563 kts 73°
2026-04-25 22:07 43.54395 167.22131 34714 ft 562 kts 73°
2026-04-25 22:07 43.56561 167.34365 34710 ft 561 kts 73°
2026-04-25 22:08 43.58388 167.44755 34709 ft 560 kts 73°
2026-04-25 22:08 43.60214 167.55195 34716 ft 560 kts 73°
2026-04-25 22:09 43.62040 167.65709 34712 ft 560 kts 74°
2026-04-25 22:09 43.63833 167.76083 34711 ft 559 kts 74°
2026-04-25 22:10 43.65628 167.86530 34706 ft 559 kts 74°
2026-04-25 22:10 43.67410 167.96958 34705 ft 559 kts 74°
2026-04-25 22:11 43.69170 168.07333 34701 ft 559 kts 74°
2026-04-25 22:11 43.70934 168.17777 34705 ft 559 kts 74°
2026-04-25 22:12 43.72683 168.28211 34702 ft 559 kts 75°
2026-04-25 22:12 43.74132 168.36894 34700 ft 559 kts 75°
2026-04-25 22:13 43.76159 168.49128 34696 ft 560 kts 75°
2026-04-25 22:13 43.77890 168.59630 34693 ft 560 kts 75°
2026-04-25 22:14 43.79621 168.70199 34692 ft 561 kts 75°
2026-04-25 22:14 43.81330 168.80699 34694 ft 561 kts 75°
2026-04-25 22:15 43.83042 168.91282 34695 ft 562 kts 75°
2026-04-25 22:16 43.85560 169.06959 34697 ft 563 kts 76°
2026-04-25 22:16 43.87244 169.17561 34693 ft 563 kts 76°
2026-04-25 22:17 43.88929 169.28199 34692 ft 564 kts 76°
2026-04-25 22:17 43.90590 169.38779 34685 ft 564 kts 76°
2026-04-25 22:18 43.92240 169.49353 34684 ft 563 kts 76°
2026-04-25 22:18 43.93896 169.60026 34684 ft 563 kts 76°
2026-04-25 22:19 43.95529 169.70619 34681 ft 562 kts 76°
2026-04-25 22:19 43.97148 169.81198 34686 ft 561 kts 77°
2026-04-25 22:20 43.98762 169.91814 34682 ft 560 kts 77°
2026-04-25 22:20 44.00335 170.02217 34683 ft 560 kts 77°
2026-04-25 22:21 44.01879 170.12795 34680 ft 560 kts 77°
2026-04-25 22:21 44.03404 170.23435 34674 ft 560 kts 77°
2026-04-25 22:22 44.04914 170.34027 34677 ft 560 kts 77°
2026-04-25 22:22 44.06428 170.44683 34672 ft 560 kts 78°
2026-04-25 22:23 44.07918 170.55235 34675 ft 559 kts 78°
2026-04-25 22:23 44.09409 170.65878 34676 ft 559 kts 78°
2026-04-25 22:24 44.10882 170.76437 34675 ft 559 kts 78°
2026-04-25 22:24 44.12355 170.87084 34674 ft 559 kts 78°
2026-04-25 22:25 44.13566 170.95897 34672 ft 558 kts 79°
2026-04-25 22:25 44.14998 171.06399 34664 ft 558 kts 79°
2026-04-25 22:26 44.16432 171.16975 34663 ft 558 kts 79°
2026-04-25 22:26 44.17856 171.27564 34666 ft 558 kts 79°
2026-04-25 22:27 44.19283 171.38247 34663 ft 558 kts 79°
2026-04-25 22:27 44.20686 171.48836 34665 ft 559 kts 79°
2026-04-25 22:28 44.22085 171.59491 34665 ft 560 kts 80°
2026-04-25 22:28 44.23481 171.70182 34657 ft 561 kts 80°
2026-04-25 22:29 44.24868 171.80901 34659 ft 562 kts 80°
2026-04-25 22:29 44.26245 171.91607 34657 ft 562 kts 80°
2026-04-25 22:30 44.28278 172.07576 34656 ft 563 kts 80°
2026-04-25 22:30 44.29404 172.16524 34656 ft 563 kts 80°
2026-04-25 22:31 44.30975 172.29057 34654 ft 562 kts 81°
2026-04-25 22:31 44.32308 172.39800 34661 ft 561 kts 81°
2026-04-25 22:32 44.33629 172.50560 34654 ft 561 kts 81°
2026-04-25 22:32 44.34943 172.61307 34653 ft 561 kts 81°
2026-04-25 22:33 44.36246 172.72052 34646 ft 560 kts 81°
2026-04-25 22:33 44.37528 172.82725 34645 ft 559 kts 81°
2026-04-25 22:34 44.38807 172.93463 34647 ft 559 kts 81°
2026-04-25 22:34 44.40053 173.04021 34646 ft 559 kts 82°
2026-04-25 22:35 44.41311 173.14769 34646 ft 558 kts 82°
2026-04-25 22:35 44.42551 173.25436 34646 ft 559 kts 82°
2026-04-25 22:36 44.43789 173.36208 34647 ft 559 kts 82°
2026-04-25 22:36 44.45015 173.46929 34647 ft 560 kts 82°
2026-04-25 22:37 44.46244 173.57774 34646 ft 562 kts 82°
2026-04-25 22:37 44.47449 173.68534 34648 ft 562 kts 83°
2026-04-25 22:38 44.48652 173.79330 34636 ft 563 kts 83°
2026-04-25 22:38 44.49846 173.90166 34641 ft 564 kts 83°
2026-04-25 22:39 44.51017 174.00863 34639 ft 565 kts 83°
2026-04-25 22:39 44.52198 174.11778 34637 ft 565 kts 83°
2026-04-25 22:40 44.53369 174.22697 34618 ft 565 kts 83°
2026-04-25 22:40 44.54524 174.33566 34608 ft 565 kts 83°
2026-04-25 22:41 44.55670 174.44435 34609 ft 564 kts 84°
2026-04-25 22:41 44.56802 174.55308 34616 ft 563 kts 84°
2026-04-25 22:42 44.57919 174.66115 34608 ft 562 kts 84°
2026-04-25 22:42 44.59035 174.77038 34605 ft 561 kts 84°
2026-04-25 22:43 44.60129 174.87819 34610 ft 561 kts 84°
2026-04-25 22:43 44.61215 174.98642 34609 ft 561 kts 84°
2026-04-25 22:44 44.62282 175.09380 34597 ft 562 kts 85°
2026-04-25 22:44 44.63354 175.20279 34599 ft 562 kts 85°
2026-04-25 22:45 44.64405 175.31071 34598 ft 563 kts 85°
2026-04-25 22:45 44.65457 175.41963 34597 ft 563 kts 85°
2026-04-25 22:46 44.66497 175.52866 34603 ft 564 kts 85°
2026-04-25 22:46 44.67526 175.63826 34601 ft 565 kts 85°
2026-04-25 22:47 44.68555 175.74797 34604 ft 566 kts 86°
2026-04-25 22:47 44.69572 175.85748 34599 ft 566 kts 86°
2026-04-25 22:48 44.70575 175.96725 34604 ft 566 kts 86°
2026-04-25 22:48 44.71555 176.07566 34598 ft 567 kts 86°
2026-04-25 22:49 44.72537 176.18505 34603 ft 567 kts 86°
2026-04-25 22:49 44.73515 176.29560 34597 ft 568 kts 87°
2026-04-25 22:50 44.74478 176.40581 34600 ft 568 kts 87°
2026-04-25 22:50 44.75428 176.51549 34597 ft 568 kts 87°
2026-04-25 22:51 44.76375 176.62616 34601 ft 567 kts 87°
2026-04-25 22:51 44.77308 176.73633 34604 ft 567 kts 87°
2026-04-25 22:52 44.78225 176.84578 34601 ft 566 kts 88°
2026-04-25 22:52 44.78987 176.93798 34598 ft 566 kts 88°
2026-04-25 22:53 44.80022 177.06477 34603 ft 566 kts 88°
2026-04-25 22:53 44.80903 177.17417 34600 ft 566 kts 88°
2026-04-25 22:54 44.81784 177.28473 34600 ft 566 kts 88°
2026-04-25 22:54 44.82646 177.39445 34601 ft 567 kts 89°
2026-04-25 22:55 44.83503 177.50487 34602 ft 567 kts 89°
2026-04-25 22:55 44.84354 177.61569 34599 ft 568 kts 89°
2026-04-25 22:56 44.85193 177.72649 34561 ft 569 kts 89°
2026-04-25 22:56 44.86020 177.83742 34562 ft 569 kts 89°
2026-04-25 22:57 44.86836 177.94779 34567 ft 569 kts 89°
2026-04-25 22:57 44.87632 178.05684 34565 ft 568 kts 90°
2026-04-25 22:58 44.88433 178.16780 34567 ft 569 kts 90°
2026-04-25 22:58 44.89210 178.27882 34569 ft 569 kts 90°
2026-04-25 22:59 44.89984 178.38989 34572 ft 570 kts 90°
2026-04-25 22:59 44.90759 178.50184 34567 ft 569 kts 90°
2026-04-25 23:00 44.91508 178.61246 34564 ft 569 kts 91°
2026-04-25 23:00 44.92251 178.72334 34572 ft 569 kts 91°
2026-04-25 23:01 44.92988 178.83492 34561 ft 569 kts 91°
2026-04-25 23:01 44.93709 178.94624 34575 ft 569 kts 91°
2026-04-25 23:02 44.94403 179.05507 34566 ft 568 kts 91°
2026-04-25 23:02 44.95100 179.16616 34565 ft 568 kts 92°
2026-04-25 23:03 44.95789 179.27722 34580 ft 568 kts 92°
2026-04-25 23:03 44.96468 179.38856 34565 ft 568 kts 92°
2026-04-25 23:04 44.97025 179.48122 34572 ft 568 kts 92°
2026-04-25 23:04 44.97792 179.61084 34572 ft 568 kts 93°
2026-04-25 23:05 44.98434 179.72169 34573 ft 568 kts 93°
2026-04-25 23:05 44.99069 179.83330 34568 ft 568 kts 93°
2026-04-25 23:06 44.99693 179.94417 34566 ft 567 kts 93°
2026-04-25 23:06 45.00624 -179.94818 34561 ft 575 kts 86°
2026-04-25 23:07 45.02238 -179.83777 34478 ft 578 kts 85°
2026-04-25 23:07 45.03926 -179.72630 34379 ft 580 kts 85°
2026-04-25 23:08 45.05573 -179.61413 34257 ft 581 kts 86°
2026-04-25 23:08 45.07165 -179.50224 34118 ft 582 kts 86°
2026-04-25 23:09 45.08727 -179.39055 33985 ft 582 kts 87°
2026-04-25 23:09 45.10285 -179.27860 33860 ft 580 kts 87°
2026-04-25 23:10 45.11840 -179.16684 33826 ft 577 kts 87°
2026-04-25 23:10 45.13380 -179.05525 33814 ft 574 kts 88°
2026-04-25 23:11 45.14868 -178.94626 33821 ft 573 kts 88°
2026-04-25 23:11 45.16370 -178.83550 33826 ft 573 kts 88°
2026-04-25 23:12 45.17615 -178.74267 33825 ft 574 kts 88°
2026-04-25 23:12 45.19103 -178.63115 33834 ft 577 kts 89°
2026-04-25 23:13 45.20828 -178.50112 33818 ft 578 kts 89°
2026-04-25 23:13 45.22067 -178.40702 33824 ft 579 kts 89°
2026-04-25 23:14 45.23528 -178.29509 33827 ft 580 kts 89°
2026-04-25 23:14 45.24988 -178.18246 33825 ft 580 kts 89°
2026-04-25 23:15 45.26435 -178.07017 33820 ft 579 kts 89°
2026-04-25 23:15 45.27844 -177.95951 33821 ft 578 kts 90°
2026-04-25 23:16 45.29262 -177.84718 33822 ft 576 kts 90°
2026-04-25 23:16 45.30671 -177.73474 33822 ft 575 kts 90°
2026-04-25 23:17 45.32059 -177.62306 33820 ft 574 kts 91°
2026-04-25 23:17 45.33435 -177.51139 33814 ft 574 kts 91°
2026-04-25 23:18 45.34801 -177.39974 33816 ft 574 kts 91°
2026-04-25 23:18 45.36159 -177.28766 33823 ft 574 kts 91°
2026-04-25 23:19 45.37503 -177.17598 33880 ft 574 kts 91°
2026-04-25 23:19 45.38828 -177.06452 33885 ft 575 kts 91°
2026-04-25 23:20 45.40138 -176.95357 33881 ft 575 kts 92°
2026-04-25 23:20 45.41453 -176.84125 33880 ft 576 kts 92°
2026-04-25 23:21 45.42755 -176.72943 33883 ft 575 kts 92°
2026-04-25 23:21 45.44044 -176.61736 33874 ft 574 kts 92°
2026-04-25 23:22 45.45327 -176.50482 33949 ft 570 kts 93°
2026-04-25 23:23 45.47206 -176.33801 33957 ft 569 kts 93°
2026-04-25 23:23 45.48444 -176.22678 33955 ft 568 kts 94°
2026-04-25 23:24 45.49672 -176.11550 33956 ft 568 kts 94°
2026-04-25 23:24 45.50882 -176.00491 33959 ft 567 kts 94°
2026-04-25 23:25 45.52073 -175.89487 33955 ft 567 kts 94°
2026-04-25 23:25 45.53270 -175.78357 33952 ft 567 kts 94°
2026-04-25 23:26 45.54443 -175.67339 33960 ft 566 kts 94°
2026-04-25 23:26 45.55615 -175.56176 33956 ft 567 kts 94°
2026-04-25 23:27 45.56774 -175.45050 33953 ft 568 kts 94°
2026-04-25 23:27 45.57930 -175.33882 33955 ft 568 kts 93°
2026-04-25 23:28 45.59077 -175.22694 33955 ft 569 kts 93°
2026-04-25 23:28 45.60201 -175.11566 33958 ft 571 kts 93°
2026-04-25 23:29 45.61327 -175.00327 33956 ft 573 kts 92°
2026-04-25 23:29 45.62426 -174.89245 33965 ft 573 kts 92°
2026-04-25 23:30 45.63540 -174.77908 33959 ft 575 kts 92°
2026-04-25 23:30 45.64644 -174.66569 33963 ft 575 kts 92°
2026-04-25 23:31 45.65728 -174.55296 33951 ft 577 kts 92°
2026-04-25 23:31 45.66813 -174.43916 33955 ft 577 kts 92°
2026-04-25 23:32 45.67887 -174.32513 33957 ft 578 kts 92°
2026-04-25 23:32 45.68946 -174.21143 33954 ft 579 kts 92°
2026-04-25 23:33 45.69997 -174.09726 33986 ft 579 kts 92°
2026-04-25 23:33 45.71022 -173.98490 34077 ft 577 kts 92°
2026-04-25 23:34 45.72051 -173.87079 34197 ft 576 kts 92°
2026-04-25 23:34 45.73058 -173.75757 34300 ft 575 kts 92°
2026-04-25 23:35 45.74056 -173.64387 34334 ft 576 kts 92°
2026-04-25 23:35 45.75043 -173.53035 34330 ft 578 kts 92°
2026-04-25 23:36 45.76024 -173.41611 34330 ft 578 kts 92°
2026-04-25 23:36 45.76994 -173.30217 34326 ft 577 kts 92°
2026-04-25 23:37 45.77950 -173.18832 34326 ft 575 kts 91°
2026-04-25 23:37 45.78891 -173.07458 34326 ft 573 kts 91°
2026-04-25 23:38 45.79802 -172.96317 34325 ft 572 kts 91°
2026-04-25 23:38 45.80723 -172.84951 34324 ft 571 kts 91°
2026-04-25 23:39 45.81624 -172.73697 34328 ft 569 kts 91°
2026-04-25 23:39 45.82510 -172.62436 34336 ft 568 kts 91°
2026-04-25 23:40 45.83380 -172.51228 34335 ft 568 kts 91°
2026-04-25 23:40 45.84250 -172.39905 34339 ft 568 kts 91°
2026-04-25 23:41 45.85100 -172.28706 34337 ft 569 kts 91°
2026-04-25 23:41 45.85947 -172.17359 34340 ft 570 kts 91°
2026-04-25 23:42 45.86782 -172.06049 34338 ft 571 kts 92°
2026-04-25 23:42 45.87593 -171.94906 34338 ft 571 kts 92°
2026-04-25 23:43 45.88406 -171.83611 34342 ft 571 kts 92°
2026-04-25 23:43 45.89207 -171.72319 34347 ft 570 kts 92°
2026-04-25 23:44 45.89998 -171.60949 34344 ft 570 kts 92°
2026-04-25 23:44 45.90774 -171.49646 34348 ft 570 kts 92°
2026-04-25 23:45 45.91539 -171.38373 34347 ft 569 kts 91°
2026-04-25 23:45 45.92293 -171.27078 34348 ft 568 kts 91°
2026-04-25 23:46 45.93039 -171.15734 34354 ft 567 kts 91°
2026-04-25 23:46 45.93767 -171.04523 34352 ft 566 kts 91°
2026-04-25 23:47 45.94476 -170.93400 34357 ft 566 kts 91°
2026-04-25 23:47 45.95186 -170.82130 34353 ft 565 kts 91°
2026-04-25 23:48 45.95879 -170.70873 34360 ft 564 kts 91°
2026-04-25 23:48 45.96560 -170.59644 34362 ft 564 kts 91°
2026-04-25 23:49 45.97228 -170.48490 34369 ft 564 kts 91°
2026-04-25 23:49 45.97889 -170.37240 34365 ft 564 kts 91°
2026-04-25 23:50 45.98543 -170.25935 34367 ft 564 kts 91°
2026-04-25 23:50 45.99180 -170.14745 34374 ft 565 kts 91°
2026-04-25 23:51 45.99804 -170.03465 34374 ft 564 kts 92°
2026-04-25 23:51 45.99724 -169.92484 34377 ft 555 kts 102°
2026-04-25 23:52 45.99046 -169.81512 34381 ft 554 kts 102°
2026-04-25 23:52 45.98341 -169.70467 34383 ft 555 kts 102°
2026-04-25 23:53 45.97672 -169.59380 34387 ft 556 kts 102°
2026-04-25 23:53 45.97023 -169.48361 34383 ft 556 kts 101°
2026-04-25 23:54 45.96362 -169.37224 34387 ft 555 kts 101°
2026-04-25 23:54 45.95699 -169.26258 34393 ft 555 kts 101°
2026-04-25 23:55 45.95012 -169.15193 34395 ft 554 kts 101°
2026-04-25 23:55 45.94316 -169.04196 34392 ft 554 kts 101°
2026-04-25 23:56 45.93626 -168.93396 34402 ft 553 kts 100°
2026-04-25 23:56 45.92908 -168.82333 34403 ft 553 kts 100°
2026-04-25 23:57 45.92184 -168.71360 34404 ft 554 kts 100°
2026-04-25 23:57 45.91446 -168.60340 34403 ft 554 kts 100°
2026-04-25 23:58 45.90703 -168.49375 34414 ft 554 kts 100°
2026-04-25 23:58 45.89944 -168.38345 34411 ft 555 kts 100°
2026-04-25 23:59 45.89173 -168.27311 34413 ft 555 kts 100°
2026-04-25 23:59 45.88391 -168.16267 34422 ft 556 kts 100°
2026-04-26 00:00 45.87601 -168.05258 34424 ft 556 kts 100°
2026-04-26 00:00 45.86806 -167.94363 34421 ft 557 kts 100°
2026-04-26 00:01 45.86126 -167.85142 34425 ft 557 kts 100°
2026-04-26 00:01 45.85309 -167.74157 34434 ft 557 kts 100°
2026-04-26 00:02 45.84476 -167.63139 34430 ft 556 kts 100°
2026-04-26 00:02 45.83634 -167.52124 34434 ft 556 kts 100°
2026-04-26 00:03 45.82774 -167.41049 34437 ft 555 kts 100°
2026-04-26 00:03 45.81916 -167.30113 34442 ft 555 kts 100°
2026-04-26 00:04 45.81043 -167.19123 34447 ft 554 kts 100°
2026-04-26 00:04 45.80163 -167.08184 34438 ft 554 kts 100°
2026-04-26 00:05 45.79276 -166.97322 34450 ft 554 kts 100°
2026-04-26 00:05 45.78377 -166.86414 34451 ft 553 kts 100°
2026-04-26 00:06 45.77461 -166.75433 34445 ft 553 kts 99°
2026-04-26 00:06 45.76544 -166.64504 34448 ft 553 kts 99°
2026-04-26 00:07 45.75616 -166.53639 34468 ft 553 kts 99°
2026-04-26 00:07 45.74671 -166.42721 34491 ft 553 kts 99°
2026-04-26 00:08 45.73721 -166.31827 34599 ft 551 kts 101°
2026-04-26 00:08 45.72760 -166.20949 34703 ft 548 kts 102°
2026-04-26 00:09 45.71797 -166.10144 34795 ft 546 kts 102°
2026-04-26 00:09 45.70842 -165.99558 34841 ft 546 kts 102°
2026-04-26 00:10 45.69858 -165.88821 34844 ft 546 kts 102°
2026-04-26 00:10 45.68869 -165.78089 34844 ft 547 kts 102°
2026-04-26 00:11 45.67861 -165.67252 34843 ft 548 kts 102°
2026-04-26 00:11 45.66850 -165.56509 34843 ft 548 kts 102°
2026-04-26 00:12 45.65823 -165.45721 34843 ft 548 kts 102°
2026-04-26 00:12 45.64786 -165.34943 34843 ft 547 kts 102°
2026-04-26 00:13 45.63742 -165.24185 34840 ft 547 kts 102°
2026-04-26 00:13 45.62683 -165.13382 34842 ft 547 kts 102°
2026-04-26 00:14 45.61623 -165.02658 34842 ft 546 kts 102°
2026-04-26 00:14 45.60567 -164.92073 34848 ft 546 kts 102°
2026-04-26 00:15 45.59488 -164.81384 34854 ft 545 kts 102°
2026-04-26 00:15 45.58391 -164.70624 34852 ft 545 kts 102°
2026-04-26 00:16 45.57290 -164.59951 34850 ft 545 kts 102°
2026-04-26 00:16 45.56179 -164.49252 34853 ft 546 kts 102°
2026-04-26 00:17 45.55052 -164.38483 34851 ft 546 kts 102°
2026-04-26 00:17 45.53921 -164.27787 34852 ft 547 kts 102°
2026-04-26 00:18 45.52781 -164.17112 34862 ft 547 kts 102°
2026-04-26 00:18 45.51625 -164.06400 34871 ft 547 kts 102°
2026-04-26 00:19 45.50481 -163.95865 34873 ft 547 kts 102°
2026-04-26 00:19 45.49301 -163.85099 34875 ft 547 kts 102°
2026-04-26 00:20 45.48116 -163.74418 34884 ft 547 kts 102°
2026-04-26 00:20 45.46922 -163.63728 34873 ft 547 kts 102°
2026-04-26 00:21 45.45715 -163.53012 34880 ft 547 kts 102°
2026-04-26 00:21 45.44497 -163.42285 34881 ft 548 kts 101°
2026-04-26 00:22 45.43268 -163.31573 34876 ft 548 kts 101°
2026-04-26 00:22 45.42035 -163.20920 34881 ft 547 kts 101°
2026-04-26 00:23 45.40789 -163.10223 34879 ft 547 kts 101°
2026-04-26 00:23 45.39552 -162.99691 34877 ft 547 kts 101°
2026-04-26 00:24 45.38287 -162.89032 34880 ft 547 kts 101°
2026-04-26 00:24 45.37017 -162.78398 34877 ft 547 kts 101°
2026-04-26 00:25 45.35733 -162.67740 34883 ft 547 kts 101°
2026-04-26 00:25 45.34437 -162.57078 34881 ft 548 kts 101°
2026-04-26 00:26 45.33130 -162.46405 34880 ft 548 kts 101°
2026-04-26 00:26 45.31813 -162.35740 34885 ft 549 kts 101°
2026-04-26 00:27 45.30477 -162.25017 34885 ft 550 kts 101°
2026-04-26 00:27 45.29142 -162.14376 34889 ft 550 kts 101°
2026-04-26 00:28 45.27785 -162.03642 34898 ft 550 kts 101°
2026-04-26 00:28 45.26454 -161.93187 34897 ft 550 kts 101°
2026-04-26 00:29 45.25081 -161.82486 34896 ft 550 kts 101°
2026-04-26 00:29 45.23700 -161.71824 34899 ft 549 kts 101°
2026-04-26 00:30 45.22317 -161.61216 34961 ft 548 kts 101°
2026-04-26 00:30 45.20931 -161.50658 35041 ft 546 kts 101°
2026-04-26 00:31 45.19527 -161.40060 35046 ft 547 kts 101°
2026-04-26 00:31 45.18114 -161.29457 35049 ft 548 kts 101°
2026-04-26 00:32 45.16691 -161.18863 35048 ft 548 kts 101°
2026-04-26 00:32 45.14528 -161.02926 35048 ft 549 kts 101°
2026-04-26 00:33 45.13097 -160.92476 35045 ft 549 kts 101°
2026-04-26 00:33 45.11634 -160.81853 35044 ft 549 kts 101°
2026-04-26 00:34 45.10163 -160.71246 35048 ft 549 kts 101°
2026-04-26 00:34 45.08685 -160.60696 35047 ft 549 kts 101°
2026-04-26 00:35 45.07194 -160.50103 35045 ft 549 kts 101°
2026-04-26 00:35 45.05686 -160.39465 35046 ft 549 kts 101°
2026-04-26 00:36 45.04186 -160.28952 35046 ft 549 kts 101°
2026-04-26 00:36 45.02656 -160.18307 35046 ft 549 kts 101°
2026-04-26 00:37 45.01155 -160.07782 35051 ft 549 kts 101°
2026-04-26 00:37 44.99599 -159.97366 35059 ft 549 kts 101°
2026-04-26 00:38 44.98025 -159.86846 35067 ft 548 kts 100°
2026-04-26 00:38 44.96409 -159.76308 35065 ft 547 kts 101°
2026-04-26 00:39 44.94794 -159.65823 35062 ft 546 kts 101°
2026-04-26 00:39 44.93179 -159.55355 35063 ft 546 kts 101°
2026-04-26 00:40 44.91555 -159.44897 35064 ft 546 kts 101°
2026-04-26 00:40 44.89926 -159.34480 35065 ft 546 kts 101°
2026-04-26 00:41 44.88284 -159.24042 35063 ft 546 kts 101°
2026-04-26 00:41 44.86627 -159.13589 35057 ft 545 kts 101°
2026-04-26 00:42 44.84970 -159.03182 35042 ft 545 kts 100°
2026-04-26 00:42 44.83333 -158.92969 35036 ft 545 kts 100°
2026-04-26 00:43 44.81652 -158.82553 35038 ft 544 kts 100°
2026-04-26 00:43 44.79972 -158.72189 35037 ft 544 kts 100°
2026-04-26 00:44 44.78271 -158.61777 35038 ft 543 kts 100°
2026-04-26 00:44 44.76567 -158.51420 35036 ft 542 kts 100°
2026-04-26 00:45 44.75154 -158.42878 35040 ft 542 kts 100°
2026-04-26 00:45 44.73152 -158.30818 35038 ft 541 kts 100°
2026-04-26 00:46 44.71419 -158.20487 35054 ft 541 kts 100°
2026-04-26 00:46 44.69692 -158.10214 35064 ft 540 kts 100°
2026-04-26 00:47 44.67963 -157.99976 35068 ft 540 kts 100°
2026-04-26 00:47 44.66244 -157.89884 35071 ft 540 kts 100°
2026-04-26 00:48 44.64490 -157.79651 35065 ft 540 kts 100°
2026-04-26 00:48 44.62726 -157.69410 35065 ft 539 kts 100°
2026-04-26 00:49 44.60952 -157.59176 35064 ft 540 kts 100°
2026-04-26 00:49 44.59170 -157.48955 35069 ft 540 kts 100°
2026-04-26 00:50 44.57680 -157.40441 35067 ft 540 kts 100°
2026-04-26 00:50 44.55585 -157.28555 35065 ft 540 kts 100°
2026-04-26 00:51 44.54067 -157.19995 35065 ft 540 kts 100°
2026-04-26 00:51 44.52251 -157.09813 35070 ft 540 kts 100°
2026-04-26 00:52 44.50452 -156.99756 35069 ft 540 kts 100°
2026-04-26 00:52 44.48623 -156.89598 35067 ft 540 kts 100°
2026-04-26 00:53 44.46777 -156.79406 35061 ft 540 kts 100°
2026-04-26 00:53 44.44926 -156.69238 35068 ft 539 kts 99°
2026-04-26 00:54 44.43062 -156.59056 35067 ft 539 kts 99°
2026-04-26 00:54 44.41192 -156.48901 35063 ft 538 kts 99°
2026-04-26 00:55 44.39323 -156.38811 35068 ft 538 kts 99°
2026-04-26 00:55 44.37440 -156.28702 35090 ft 537 kts 99°
2026-04-26 00:56 44.35552 -156.18601 35098 ft 537 kts 100°
2026-04-26 00:56 44.33655 -156.08522 35086 ft 537 kts 100°
2026-04-26 00:57 44.31768 -155.98551 35096 ft 537 kts 99°
2026-04-26 00:57 44.29855 -155.88486 35097 ft 537 kts 99°
2026-04-26 00:58 44.27942 -155.78475 35083 ft 536 kts 99°
2026-04-26 00:58 44.26009 -155.68408 35098 ft 536 kts 100°
2026-04-26 00:59 44.24071 -155.58377 35097 ft 536 kts 100°
2026-04-26 00:59 44.22124 -155.48345 35080 ft 536 kts 100°
2026-04-26 01:00 44.20170 -155.38328 35063 ft 537 kts 100°
2026-04-26 01:00 44.18198 -155.28286 35064 ft 537 kts 100°
2026-04-26 01:01 44.16218 -155.18232 35065 ft 537 kts 100°
2026-04-26 01:01 44.14232 -155.08203 35069 ft 538 kts 100°
2026-04-26 01:02 44.12268 -154.98351 35059 ft 538 kts 100°
2026-04-26 01:02 44.10262 -154.88318 35049 ft 538 kts 100°
2026-04-26 01:03 44.08241 -154.78281 35053 ft 538 kts 100°
2026-04-26 01:03 44.06213 -154.68257 35055 ft 538 kts 100°
2026-04-26 01:04 44.04189 -154.58288 35056 ft 537 kts 100°
2026-04-26 01:04 44.02146 -154.48286 35056 ft 536 kts 100°
2026-04-26 01:05 44.00105 -154.38340 35051 ft 535 kts 100°
2026-04-26 01:05 43.98073 -154.28491 35056 ft 534 kts 100°
2026-04-26 01:06 43.96011 -154.18532 35055 ft 534 kts 100°
2026-04-26 01:06 43.93964 -154.08701 35050 ft 533 kts 100°
2026-04-26 01:07 43.91925 -153.98960 35056 ft 533 kts 100°
2026-04-26 01:07 43.89842 -153.89047 35058 ft 533 kts 100°
2026-04-26 01:08 43.87765 -153.79216 35056 ft 533 kts 100°
2026-04-26 01:08 43.85674 -153.69362 35057 ft 533 kts 100°
2026-04-26 01:09 43.83571 -153.59502 35055 ft 534 kts 100°
2026-04-26 01:09 43.81458 -153.49645 35055 ft 534 kts 100°
2026-04-26 01:10 43.79351 -153.39849 35057 ft 534 kts 100°
2026-04-26 01:10 43.77223 -153.30011 35055 ft 534 kts 100°
2026-04-26 01:11 43.75088 -153.20188 35055 ft 533 kts 100°
2026-04-26 01:11 43.72944 -153.10370 35057 ft 533 kts 100°
2026-04-26 01:12 43.70795 -153.00563 35058 ft 533 kts 100°
2026-04-26 01:12 43.68668 -152.90911 35054 ft 533 kts 100°
2026-04-26 01:13 43.66500 -152.81128 35056 ft 532 kts 100°
2026-04-26 01:13 43.64330 -152.71371 35054 ft 532 kts 100°
2026-04-26 01:14 43.62156 -152.61625 35056 ft 531 kts 100°
2026-04-26 01:14 43.59986 -152.51952 35055 ft 531 kts 100°
2026-04-26 01:15 43.57795 -152.42234 35062 ft 531 kts 100°
2026-04-26 01:15 43.55597 -152.32516 35072 ft 531 kts 100°
2026-04-26 01:16 43.53387 -152.22792 35078 ft 531 kts 100°
2026-04-26 01:16 43.51166 -152.13072 35077 ft 532 kts 100°
2026-04-26 01:17 43.48935 -152.03351 35072 ft 532 kts 100°
2026-04-26 01:17 43.46727 -151.93767 35079 ft 533 kts 100°
2026-04-26 01:18 43.44477 -151.84052 35065 ft 532 kts 100°
2026-04-26 01:18 43.42220 -151.74347 35069 ft 533 kts 100°
2026-04-26 01:19 43.39957 -151.64649 35068 ft 532 kts 100°
2026-04-26 01:19 43.37687 -151.54971 35070 ft 532 kts 100°
2026-04-26 01:20 43.35408 -151.45290 35078 ft 532 kts 100°
2026-04-26 01:20 43.33138 -151.35693 35103 ft 532 kts 101°
2026-04-26 01:21 43.30844 -151.26036 35100 ft 532 kts 101°
2026-04-26 01:21 43.28541 -151.16376 35101 ft 533 kts 101°
2026-04-26 01:22 43.26224 -151.06705 35092 ft 534 kts 101°
2026-04-26 01:22 43.23934 -150.97189 35097 ft 533 kts 101°
2026-04-26 01:23 43.21598 -150.87526 35094 ft 534 kts 101°
2026-04-26 01:23 43.19254 -150.77859 35082 ft 534 kts 101°
2026-04-26 01:24 43.16954 -150.68421 35094 ft 534 kts 101°
2026-04-26 01:24 43.14590 -150.58761 35097 ft 534 kts 101°
2026-04-26 01:25 43.12212 -150.49101 35095 ft 534 kts 101°
2026-04-26 01:25 43.09845 -150.39497 35096 ft 534 kts 101°
2026-04-26 01:26 43.07457 -150.29852 35075 ft 535 kts 101°
2026-04-26 01:26 43.05077 -150.20292 35083 ft 534 kts 101°
2026-04-26 01:27 43.02664 -150.10619 35084 ft 534 kts 101°
2026-04-26 01:27 43.00289 -150.01080 35087 ft 533 kts 99°
2026-04-26 01:28 42.98583 -149.91438 35096 ft 524 kts 92°
2026-04-26 01:28 42.97152 -149.81688 35083 ft 524 kts 92°
2026-04-26 01:29 42.95714 -149.71976 35081 ft 523 kts 92°
2026-04-26 01:29 42.94235 -149.62285 35083 ft 524 kts 93°
2026-04-26 01:30 42.92717 -149.52517 35080 ft 524 kts 93°
2026-04-26 01:30 42.91196 -149.42812 35084 ft 523 kts 93°
2026-04-26 01:31 42.89676 -149.33130 35076 ft 524 kts 93°
2026-04-26 01:31 42.88145 -149.23434 35081 ft 523 kts 94°
2026-04-26 01:32 42.86604 -149.13724 35086 ft 523 kts 94°
2026-04-26 01:32 42.85064 -149.04097 35082 ft 523 kts 94°
2026-04-26 01:33 42.83525 -148.94521 35077 ft 523 kts 94°
2026-04-26 01:33 42.81969 -148.84884 35084 ft 522 kts 94°
2026-04-26 01:34 42.80396 -148.75205 35084 ft 522 kts 94°
2026-04-26 01:34 42.78820 -148.65571 35084 ft 521 kts 94°
2026-04-26 01:35 42.77233 -148.55919 35083 ft 520 kts 94°
2026-04-26 01:35 42.75659 -148.46383 35089 ft 520 kts 94°
2026-04-26 01:36 42.74067 -148.36799 35081 ft 520 kts 95°
2026-04-26 01:37 42.71648 -148.22358 35090 ft 521 kts 95°
2026-04-26 01:37 42.70039 -148.12810 35077 ft 521 kts 95°
2026-04-26 01:38 42.68409 -148.03186 35082 ft 520 kts 95°
2026-04-26 01:38 42.67080 -147.95373 35080 ft 520 kts 95°
2026-04-26 01:39 42.65442 -147.85799 35085 ft 519 kts 95°
2026-04-26 01:39 42.63800 -147.76263 35084 ft 518 kts 95°
2026-04-26 01:40 42.62151 -147.66727 35085 ft 518 kts 95°
2026-04-26 01:40 42.60503 -147.57242 35079 ft 517 kts 95°
2026-04-26 01:41 42.58843 -147.47750 35079 ft 517 kts 95°
2026-04-26 01:41 42.57165 -147.38199 35081 ft 517 kts 96°
2026-04-26 01:42 42.55493 -147.28724 35086 ft 518 kts 96°
2026-04-26 01:42 42.53809 -147.19242 35082 ft 518 kts 96°
2026-04-26 01:43 42.52119 -147.09775 35070 ft 518 kts 96°
2026-04-26 01:43 42.50419 -147.00295 35075 ft 518 kts 96°
2026-04-26 01:44 42.48724 -146.90901 35078 ft 519 kts 96°
2026-04-26 01:44 42.47011 -146.81446 35078 ft 519 kts 96°
2026-04-26 01:45 42.45280 -146.71941 35076 ft 519 kts 96°
2026-04-26 01:45 42.43543 -146.62455 35079 ft 519 kts 97°
2026-04-26 01:46 42.41809 -146.53033 35067 ft 519 kts 97°
2026-04-26 01:46 42.40057 -146.43548 35070 ft 519 kts 97°
2026-04-26 01:47 42.38292 -146.34058 35078 ft 519 kts 97°
2026-04-26 01:47 42.36522 -146.24582 35049 ft 519 kts 97°
2026-04-26 01:48 42.34753 -146.15154 35040 ft 520 kts 97°
2026-04-26 01:48 42.32965 -146.05664 35210 ft 523 kts 97°
2026-04-26 01:48 42.32059 -146.00879 35620 ft 520 kts 98°
2026-04-26 01:49 42.31203 -145.96376 36001 ft 518 kts 98°
2026-04-26 01:49 42.30298 -145.91628 36363 ft 516 kts 98°
2026-04-26 01:49 42.29400 -145.86921 36634 ft 516 kts 98°
2026-04-26 01:49 42.28499 -145.82214 36883 ft 516 kts 99°
2026-04-26 01:50 42.27609 -145.77560 36996 ft 517 kts 99°
2026-04-26 01:50 42.25817 -145.68264 37019 ft 508 kts 99°
2026-04-26 01:51 42.24044 -145.59120 37024 ft 502 kts 99°
2026-04-26 01:51 42.22273 -145.49975 37029 ft 501 kts 99°
2026-04-26 01:52 42.20511 -145.40901 37028 ft 502 kts 99°
2026-04-26 01:52 42.18722 -145.31759 37033 ft 503 kts 99°
2026-04-26 01:53 42.16927 -145.22639 37034 ft 505 kts 100°
2026-04-26 01:53 42.15116 -145.13491 37029 ft 506 kts 100°
2026-04-26 01:54 42.13297 -145.04340 37029 ft 506 kts 101°
2026-04-26 01:54 42.11511 -144.95396 37027 ft 505 kts 101°
2026-04-26 01:55 42.09680 -144.86270 37038 ft 503 kts 101°
2026-04-26 01:55 42.07855 -144.77194 37058 ft 502 kts 101°
2026-04-26 01:56 42.06015 -144.68104 37064 ft 501 kts 101°
2026-04-26 01:56 42.04181 -144.59073 37067 ft 500 kts 102°
2026-04-26 01:57 42.02341 -144.50058 37066 ft 499 kts 102°
2026-04-26 01:57 42.00505 -144.41096 37063 ft 499 kts 102°
2026-04-26 01:58 41.98654 -144.32107 37064 ft 499 kts 102°
2026-04-26 01:58 41.96799 -144.23139 37066 ft 499 kts 102°
2026-04-26 01:59 41.94933 -144.14156 37066 ft 500 kts 102°
2026-04-26 01:59 41.93048 -144.05112 37065 ft 500 kts 102°
2026-04-26 02:00 41.91198 -143.96270 37066 ft 500 kts 102°
2026-04-26 02:00 41.89322 -143.87353 37063 ft 500 kts 102°
2026-04-26 02:01 41.87425 -143.78377 37064 ft 500 kts 103°
2026-04-26 02:01 41.85519 -143.69405 37065 ft 500 kts 103°
2026-04-26 02:02 41.83608 -143.60437 37066 ft 500 kts 103°
2026-04-26 02:02 41.81693 -143.51478 37068 ft 499 kts 103°
2026-04-26 02:03 41.79771 -143.42523 37066 ft 500 kts 103°
2026-04-26 02:03 41.77840 -143.33583 37062 ft 499 kts 103°
2026-04-26 02:04 41.75905 -143.24659 37059 ft 498 kts 103°
2026-04-26 02:04 41.73967 -143.15752 37052 ft 497 kts 103°
2026-04-26 02:05 41.72028 -143.06875 37055 ft 496 kts 104°
2026-04-26 02:05 41.70132 -142.98231 37057 ft 495 kts 104°
2026-04-26 02:06 41.68188 -142.89408 37058 ft 494 kts 104°
2026-04-26 02:06 41.66243 -142.80607 37056 ft 493 kts 104°
2026-04-26 02:07 41.64295 -142.71836 37051 ft 492 kts 105°
2026-04-26 02:07 41.62347 -142.63091 37053 ft 490 kts 105°
2026-04-26 02:08 41.60396 -142.54382 37054 ft 488 kts 105°
2026-04-26 02:08 41.58445 -142.45702 37058 ft 487 kts 105°
2026-04-26 02:09 41.56489 -142.37037 37062 ft 486 kts 105°
2026-04-26 02:09 41.54531 -142.28385 37055 ft 486 kts 106°
2026-04-26 02:10 41.52567 -142.19755 37051 ft 486 kts 105°
2026-04-26 02:10 41.50598 -142.11133 37060 ft 486 kts 106°
2026-04-26 02:11 41.48623 -142.02518 37054 ft 486 kts 106°
2026-04-26 02:11 41.46674 -141.94044 37057 ft 486 kts 106°
2026-04-26 02:12 41.44686 -141.85433 37047 ft 486 kts 106°
2026-04-26 02:12 41.42696 -141.76848 37044 ft 485 kts 107°
2026-04-26 02:13 41.40697 -141.68264 37050 ft 485 kts 107°
2026-04-26 02:13 41.38711 -141.59759 37043 ft 484 kts 107°
2026-04-26 02:14 41.36704 -141.51199 37053 ft 484 kts 107°
2026-04-26 02:14 41.34698 -141.42668 37044 ft 483 kts 107°
2026-04-26 02:15 41.32681 -141.34141 37043 ft 483 kts 107°
2026-04-26 02:15 41.30661 -141.25615 37044 ft 483 kts 107°
2026-04-26 02:16 41.28635 -141.17100 37043 ft 483 kts 107°
2026-04-26 02:16 41.26604 -141.08607 37049 ft 483 kts 107°
2026-04-26 02:17 41.24565 -141.00102 37052 ft 482 kts 107°
2026-04-26 02:17 41.22557 -140.91751 37047 ft 482 kts 107°
2026-04-26 02:18 41.20511 -140.83281 37045 ft 481 kts 107°
2026-04-26 02:18 41.18478 -140.74896 37044 ft 480 kts 107°
2026-04-26 02:19 41.16426 -140.66461 37046 ft 480 kts 107°
2026-04-26 02:19 41.14370 -140.58050 37045 ft 479 kts 108°
2026-04-26 02:20 41.12313 -140.49650 37032 ft 479 kts 108°
2026-04-26 02:20 41.10265 -140.41317 37040 ft 478 kts 108°
2026-04-26 02:21 41.08208 -140.32984 37032 ft 478 kts 108°
2026-04-26 02:21 41.06136 -140.24623 37036 ft 477 kts 108°
2026-04-26 02:22 41.04065 -140.16282 37038 ft 477 kts 108°
2026-04-26 02:22 41.01984 -140.07928 37037 ft 476 kts 108°
2026-04-26 02:23 40.99958 -139.99728 37034 ft 476 kts 105°
2026-04-26 02:23 40.98447 -139.91244 37040 ft 475 kts 102°
2026-04-26 02:24 40.97045 -139.82691 37038 ft 475 kts 102°
2026-04-26 02:24 40.95633 -139.74204 37034 ft 475 kts 102°
2026-04-26 02:25 40.94182 -139.65657 37025 ft 474 kts 102°
2026-04-26 02:25 40.92733 -139.57194 37028 ft 474 kts 102°
2026-04-26 02:26 40.91267 -139.48684 37027 ft 474 kts 103°
2026-04-26 02:26 40.90034 -139.41552 37031 ft 474 kts 103°
2026-04-26 02:27 40.88324 -139.31713 37026 ft 473 kts 103°
2026-04-26 02:27 40.87089 -139.24630 37028 ft 473 kts 103°
2026-04-26 02:28 40.85613 -139.16204 37026 ft 473 kts 103°
2026-04-26 02:28 40.84122 -139.07736 37028 ft 473 kts 103°
2026-04-26 02:29 40.82655 -138.99437 37029 ft 473 kts 103°
2026-04-26 02:29 40.81148 -138.90953 37027 ft 473 kts 103°
2026-04-26 02:30 40.79647 -138.82555 37030 ft 472 kts 103°
2026-04-26 02:30 40.78136 -138.74122 37019 ft 472 kts 103°
2026-04-26 02:31 40.76612 -138.65661 37018 ft 472 kts 103°
2026-04-26 02:31 40.75088 -138.57237 37017 ft 472 kts 103°
2026-04-26 02:32 40.73567 -138.48863 37021 ft 472 kts 103°
2026-04-26 02:32 40.72025 -138.40413 36967 ft 472 kts 103°
2026-04-26 02:33 40.70491 -138.32034 36949 ft 471 kts 103°
2026-04-26 02:33 40.68951 -138.23680 36941 ft 471 kts 103°
2026-04-26 02:34 40.67396 -138.15286 36945 ft 470 kts 103°
2026-04-26 02:34 40.65844 -138.06923 36944 ft 470 kts 103°
2026-04-26 02:35 40.64315 -137.98716 36945 ft 471 kts 104°
2026-04-26 02:35 40.62751 -137.90370 36938 ft 471 kts 104°
2026-04-26 02:36 40.61178 -137.82013 36932 ft 470 kts 104°
2026-04-26 02:36 40.59606 -137.73689 36936 ft 469 kts 104°
2026-04-26 02:37 40.58026 -137.65363 36934 ft 469 kts 104°
2026-04-26 02:37 40.56441 -137.57047 36935 ft 469 kts 104°
2026-04-26 02:38 40.54850 -137.48735 36936 ft 469 kts 104°
2026-04-26 02:38 40.53254 -137.40423 36936 ft 469 kts 104°
2026-04-26 02:39 40.51632 -137.32023 36947 ft 478 kts 104°
2026-04-26 02:39 40.49981 -137.23503 36945 ft 485 kts 104°
2026-04-26 02:40 40.48301 -137.14874 36946 ft 489 kts 104°
2026-04-26 02:40 40.46604 -137.06198 36934 ft 491 kts 104°
2026-04-26 02:41 40.44924 -136.97648 36937 ft 491 kts 105°
2026-04-26 02:41 40.43213 -136.88966 36933 ft 491 kts 105°
2026-04-26 02:42 40.41510 -136.80372 36934 ft 489 kts 105°
2026-04-26 02:42 40.39797 -136.71757 36932 ft 487 kts 105°
2026-04-26 02:43 40.37226 -136.58892 36936 ft 485 kts 105°
2026-04-26 02:43 40.35509 -136.50340 36927 ft 485 kts 105°
2026-04-26 02:44 40.33783 -136.41802 36927 ft 485 kts 105°
2026-04-26 02:44 40.32052 -136.33261 36926 ft 485 kts 105°
2026-04-26 02:45 40.30315 -136.24712 36918 ft 486 kts 105°
2026-04-26 02:45 40.28568 -136.16159 36930 ft 486 kts 105°
2026-04-26 02:46 40.26810 -136.07603 36930 ft 487 kts 105°
2026-04-26 02:46 40.25077 -135.99193 36911 ft 487 kts 105°
2026-04-26 02:47 40.21538 -135.82108 36911 ft 486 kts 106°
2026-04-26 02:47 40.17972 -135.65049 36929 ft 486 kts 106°
2026-04-26 02:48 40.14381 -135.48004 36913 ft 486 kts 106°
2026-04-26 02:48 40.10768 -135.30985 36927 ft 486 kts 106°
2026-04-26 02:49 40.07130 -135.13989 36931 ft 486 kts 106°
2026-04-26 02:49 40.03547 -134.97376 36933 ft 486 kts 106°
2026-04-26 02:50 39.99870 -134.80460 36928 ft 486 kts 106°
2026-04-26 02:50 39.96160 -134.63524 36935 ft 486 kts 106°
2026-04-26 02:51 39.92426 -134.46612 36933 ft 486 kts 106°
2026-04-26 02:51 39.88666 -134.29706 36935 ft 486 kts 106°
2026-04-26 02:52 39.84884 -134.12830 36935 ft 486 kts 106°
2026-04-26 02:52 39.81131 -133.96216 36937 ft 486 kts 106°
2026-04-26 02:53 39.77295 -133.79358 36934 ft 486 kts 106°
2026-04-26 02:53 39.73439 -133.62530 36934 ft 486 kts 106°
2026-04-26 02:54 39.69552 -133.45701 36928 ft 487 kts 107°
2026-04-26 02:54 39.65636 -133.28872 36924 ft 487 kts 107°
2026-04-26 02:55 39.61698 -133.12058 36908 ft 488 kts 107°
2026-04-26 02:55 39.57792 -132.95510 36910 ft 488 kts 107°
2026-04-26 02:56 39.53816 -132.78787 36907 ft 489 kts 106°
2026-04-26 02:56 39.49784 -132.61953 36905 ft 489 kts 107°
2026-04-26 02:57 39.45728 -132.45127 36931 ft 490 kts 106°
2026-04-26 02:57 39.41643 -132.28309 36929 ft 490 kts 107°
2026-04-26 02:58 39.37530 -132.11497 36916 ft 490 kts 107°
2026-04-26 02:58 39.33456 -131.94957 36919 ft 490 kts 107°
2026-04-26 02:59 39.26434 -131.66706 36909 ft 491 kts 107°
2026-04-26 02:59 39.17993 -131.33194 36911 ft 491 kts 107°
2026-04-26 03:00 39.09470 -130.99810 36927 ft 492 kts 107°
2026-04-26 03:00 39.00943 -130.66849 36914 ft 493 kts 107°
2026-04-26 03:01 38.92200 -130.33508 36909 ft 493 kts 108°
2026-04-26 03:01 38.83358 -130.00193 36912 ft 493 kts 107°
2026-04-26 03:02 38.75987 -129.66896 36925 ft 493 kts 105°
2026-04-26 03:02 38.68448 -129.33289 36902 ft 494 kts 105°
2026-04-26 03:03 38.60764 -128.99511 36916 ft 494 kts 105°
2026-04-26 03:03 38.53090 -128.66272 36902 ft 495 kts 105°
2026-04-26 03:04 38.45190 -128.32542 36914 ft 496 kts 106°
2026-04-26 03:04 38.37278 -127.99244 36915 ft 496 kts 106°
2026-04-26 03:05 38.29212 -127.65769 36914 ft 496 kts 107°
2026-04-26 03:05 38.21009 -127.32192 36905 ft 496 kts 107°
2026-04-26 03:06 38.12812 -126.99108 36928 ft 496 kts 107°
2026-04-26 03:06 38.04447 -126.65790 36905 ft 497 kts 108°
2026-04-26 03:07 37.95980 -126.32525 36907 ft 496 kts 108°
2026-04-26 03:07 37.87488 -125.99591 36902 ft 495 kts 108°
2026-04-26 03:08 37.80161 -125.66327 36901 ft 497 kts 102°
2026-04-26 03:08 37.73960 -125.32169 36909 ft 499 kts 103°
2026-04-26 03:09 37.67731 -124.98664 36918 ft 502 kts 103°
2026-04-26 03:09 37.61244 -124.64347 36910 ft 503 kts 104°
2026-04-26 03:10 37.54636 -124.29985 36907 ft 504 kts 104°
2026-04-26 03:10 37.48067 -123.96380 36903 ft 502 kts 104°
2026-04-26 03:11 37.41288 -123.62263 36909 ft 502 kts 105°
2026-04-26 03:11 37.38027 -123.46047 36929 ft 503 kts 105°
2026-04-26 03:12 37.34572 -123.28995 36931 ft 503 kts 105°
2026-04-26 03:12 37.31089 -123.11941 36927 ft 503 kts 106°
2026-04-26 03:13 37.27640 -122.95180 36913 ft 504 kts 106°
2026-04-26 03:13 37.25146 -122.87035 36908 ft 498 kts 123°
2026-04-26 03:13 37.22484 -122.82379 36935 ft 495 kts 134°
2026-04-26 03:14 37.10672 -122.68841 36928 ft 493 kts 140°
2026-04-26 03:14 37.02249 -122.59222 36929 ft 494 kts 140°
2026-04-26 03:15 36.92105 -122.47599 36935 ft 495 kts 140°
2026-04-26 03:15 36.81922 -122.35988 36938 ft 496 kts 140°
2026-04-26 03:16 36.71708 -122.24389 36945 ft 497 kts 141°
2026-04-26 03:16 36.61460 -122.12794 36945 ft 498 kts 141°
2026-04-26 03:17 36.51174 -122.01196 36704 ft 503 kts 141°
2026-04-26 03:17 36.46138 -121.95538 36160 ft 506 kts 141°
2026-04-26 03:17 36.40934 -121.89699 35578 ft 504 kts 141°
2026-04-26 03:18 36.35816 -121.83966 34995 ft 502 kts 141°
2026-04-26 03:18 36.32340 -121.80077 34603 ft 501 kts 141°
2026-04-26 03:18 36.29752 -121.77186 34309 ft 501 kts 140°
2026-04-26 03:18 36.27162 -121.74295 34011 ft 501 kts 140°
2026-04-26 03:19 36.24572 -121.71406 33719 ft 501 kts 140°
2026-04-26 03:19 36.21986 -121.68525 33428 ft 500 kts 140°
2026-04-26 03:19 36.19387 -121.65643 33124 ft 500 kts 141°
2026-04-26 03:19 36.16678 -121.62948 32831 ft 499 kts 146°
2026-04-26 03:20 36.13791 -121.60564 32538 ft 498 kts 149°
2026-04-26 03:20 36.10871 -121.58244 32238 ft 499 kts 149°
2026-04-26 03:20 36.07946 -121.55935 31947 ft 499 kts 149°
2026-04-26 03:20 36.05022 -121.53618 31649 ft 498 kts 148°
2026-04-26 03:21 36.02116 -121.51299 31353 ft 497 kts 148°
2026-04-26 03:21 35.99232 -121.48987 31079 ft 494 kts 148°
2026-04-26 03:21 35.93522 -121.44395 30959 ft 488 kts 149°
2026-04-26 03:22 35.87851 -121.39837 30955 ft 491 kts 149°
2026-04-26 03:22 35.82125 -121.35248 30956 ft 491 kts 149°
2026-04-26 03:23 35.76393 -121.30662 30956 ft 492 kts 149°
2026-04-26 03:23 35.70660 -121.26086 30950 ft 491 kts 149°
2026-04-26 03:24 35.64935 -121.21521 30955 ft 489 kts 149°
2026-04-26 03:24 35.59235 -121.16983 30959 ft 487 kts 150°
2026-04-26 03:25 35.53544 -121.12461 30964 ft 486 kts 150°
2026-04-26 03:25 35.47860 -121.07952 30965 ft 486 kts 150°
2026-04-26 03:26 35.42181 -121.03461 30963 ft 486 kts 150°
2026-04-26 03:26 35.36575 -120.99038 30964 ft 486 kts 150°
2026-04-26 03:27 35.30891 -120.94554 30963 ft 486 kts 151°
2026-04-26 03:27 35.25195 -120.90071 30957 ft 486 kts 151°
2026-04-26 03:28 35.19501 -120.85598 30952 ft 487 kts 151°
2026-04-26 03:28 35.13841 -120.81157 30955 ft 487 kts 151°
2026-04-26 03:29 35.08138 -120.76689 30953 ft 487 kts 152°
2026-04-26 03:29 35.02435 -120.72229 30958 ft 487 kts 152°
2026-04-26 03:30 34.96735 -120.67780 30964 ft 487 kts 152°
2026-04-26 03:30 34.91027 -120.63332 30964 ft 487 kts 152°
2026-04-26 03:31 34.85659 -120.58236 30968 ft 498 kts 136°
2026-04-26 03:31 34.81770 -120.51150 30973 ft 511 kts 119°
2026-04-26 03:32 34.79069 -120.43129 30975 ft 514 kts 116°
2026-04-26 03:32 34.76404 -120.35023 30971 ft 516 kts 117°
2026-04-26 03:33 34.73675 -120.26934 30969 ft 517 kts 117°
2026-04-26 03:33 34.70920 -120.18914 30964 ft 514 kts 118°
2026-04-26 03:34 34.69559 -120.14951 30808 ft 502 kts 118°
2026-04-26 03:34 34.68233 -120.11088 30606 ft 489 kts 118°
2026-04-26 03:34 34.66946 -120.07335 30522 ft 474 kts 118°
2026-04-26 03:34 34.65697 -120.03697 30433 ft 460 kts 118°
2026-04-26 03:35 34.64481 -120.00161 30310 ft 448 kts 119°
2026-04-26 03:35 34.63327 -119.96816 30137 ft 439 kts 119°
2026-04-26 03:35 34.62152 -119.93423 29821 ft 433 kts 120°
2026-04-26 03:35 34.60987 -119.90072 29369 ft 431 kts 120°
2026-04-26 03:36 34.59819 -119.86715 28893 ft 430 kts 120°
2026-04-26 03:36 34.58655 -119.83373 28463 ft 428 kts 119°
2026-04-26 03:36 34.57501 -119.80051 28029 ft 426 kts 119°
2026-04-26 03:36 34.56354 -119.76748 27648 ft 423 kts 119°
2026-04-26 03:37 34.55217 -119.73476 27281 ft 420 kts 119°
2026-04-26 03:37 34.54084 -119.70225 26919 ft 416 kts 119°
2026-04-26 03:37 34.52959 -119.67001 26547 ft 414 kts 119°
2026-04-26 03:37 34.51841 -119.63796 26137 ft 411 kts 119°
2026-04-26 03:38 34.50744 -119.60653 25756 ft 409 kts 119°
2026-04-26 03:38 34.49641 -119.57492 25382 ft 406 kts 118°
2026-04-26 03:38 34.48545 -119.54353 25001 ft 402 kts 118°
2026-04-26 03:38 34.47456 -119.51246 24641 ft 399 kts 118°
2026-04-26 03:39 34.46372 -119.48163 24208 ft 397 kts 118°
2026-04-26 03:39 34.45291 -119.45077 23789 ft 395 kts 118°
2026-04-26 03:39 34.44213 -119.42020 23419 ft 395 kts 118°
2026-04-26 03:39 34.43158 -119.39018 23026 ft 379 kts 118°
2026-04-26 03:40 34.42137 -119.36099 22143 ft 375 kts 118°
2026-04-26 03:40 34.41120 -119.33208 21206 ft 372 kts 118°
2026-04-26 03:40 34.40108 -119.30338 20241 ft 370 kts 118°
2026-04-26 03:40 34.39095 -119.27473 19379 ft 372 kts 118°
2026-04-26 03:41 34.38071 -119.24589 18957 ft 372 kts 118°
2026-04-26 03:41 34.37063 -119.21737 18761 ft 365 kts 118°
2026-04-26 03:41 34.36075 -119.18934 18489 ft 360 kts 118°
2026-04-26 03:41 34.35093 -119.16159 18107 ft 358 kts 118°
2026-04-26 03:42 34.34114 -119.13400 17767 ft 356 kts 118°
2026-04-26 03:42 34.33141 -119.10663 17430 ft 354 kts 118°
2026-04-26 03:42 34.32171 -119.07935 17079 ft 352 kts 118°
2026-04-26 03:42 34.31208 -119.05224 16747 ft 350 kts 118°
2026-04-26 03:43 34.30249 -119.02527 16428 ft 348 kts 118°
2026-04-26 03:43 34.29318 -118.99908 16037 ft 341 kts 118°
2026-04-26 03:43 34.28402 -118.97335 15349 ft 339 kts 118°
2026-04-26 03:43 34.27467 -118.94718 14595 ft 339 kts 118°
2026-04-26 03:44 34.26540 -118.92122 14063 ft 330 kts 117°
2026-04-26 03:44 34.25576 -118.89729 13696 ft 310 kts 130°
2026-04-26 03:44 34.24120 -118.87990 13388 ft 285 kts 150°
2026-04-26 03:44 34.22549 -118.86586 13077 ft 281 kts 149°
2026-04-26 03:45 34.20936 -118.85134 12789 ft 299 kts 149°
2026-04-26 03:45 34.19215 -118.83574 12448 ft 318 kts 148°
2026-04-26 03:45 34.17449 -118.81954 12247 ft 317 kts 148°
2026-04-26 03:45 34.15727 -118.80324 11964 ft 315 kts 145°
2026-04-26 03:46 34.14082 -118.78562 11612 ft 316 kts 142°
2026-04-26 03:46 34.12475 -118.76769 11263 ft 315 kts 142°
2026-04-26 03:46 34.10872 -118.74987 10915 ft 313 kts 142°
2026-04-26 03:47 34.07665 -118.71468 10210 ft 310 kts 141°
2026-04-26 03:47 34.06079 -118.69767 10110 ft 301 kts 143°
2026-04-26 03:47 34.04525 -118.68117 9885 ft 295 kts 141°
2026-04-26 03:47 34.03237 -118.66231 9531 ft 295 kts 118°
2026-04-26 03:48 34.02672 -118.63872 9255 ft 294 kts 98°
2026-04-26 03:48 34.02469 -118.61431 8951 ft 292 kts 97°
2026-04-26 03:48 34.02257 -118.58991 8638 ft 293 kts 97°
2026-04-26 03:48 34.02033 -118.56553 8332 ft 292 kts 98°
2026-04-26 03:49 34.01808 -118.54129 8011 ft 291 kts 98°
2026-04-26 03:49 34.01584 -118.51727 7832 ft 284 kts 98°
2026-04-26 03:49 34.01365 -118.49395 7713 ft 276 kts 98°
2026-04-26 03:49 34.01151 -118.47122 7496 ft 271 kts 98°
2026-04-26 03:50 34.01080 -118.44884 7227 ft 264 kts 83°
2026-04-26 03:50 34.01426 -118.42746 7026 ft 260 kts 77°
2026-04-26 03:50 34.01833 -118.40635 6773 ft 258 kts 77°
2026-04-26 03:50 34.02225 -118.38519 6487 ft 257 kts 78°
2026-04-26 03:51 34.02594 -118.36447 6281 ft 250 kts 78°
2026-04-26 03:51 34.02911 -118.34376 5988 ft 248 kts 83°
2026-04-26 03:51 34.03113 -118.32366 5990 ft 238 kts 84°
2026-04-26 03:51 34.03302 -118.30392 5995 ft 237 kts 84°
2026-04-26 03:52 34.03494 -118.28416 6000 ft 238 kts 84°
2026-04-26 03:52 34.03685 -118.26428 6001 ft 239 kts 84°
2026-04-26 03:52 34.03870 -118.24415 5828 ft 243 kts 84°
2026-04-26 03:52 34.04057 -118.22417 5677 ft 237 kts 84°
2026-04-26 03:53 34.04234 -118.20479 5614 ft 233 kts 84°
2026-04-26 03:53 34.04411 -118.18538 5583 ft 233 kts 84°
2026-04-26 03:53 34.04587 -118.16593 5514 ft 235 kts 84°
2026-04-26 03:53 34.04769 -118.14632 5345 ft 235 kts 84°
2026-04-26 03:54 34.04954 -118.12674 5136 ft 235 kts 84°
2026-04-26 03:54 34.05144 -118.10727 4939 ft 233 kts 84°
2026-04-26 03:54 34.05306 -118.08789 4689 ft 230 kts 92°
2026-04-26 03:54 34.04853 -118.06965 4334 ft 230 kts 126°
2026-04-26 03:55 34.03665 -118.05744 4050 ft 224 kts 157°
2026-04-26 03:55 34.02226 -118.05046 3784 ft 223 kts 161°
2026-04-26 03:55 34.00789 -118.04422 3626 ft 213 kts 169°
2026-04-26 03:55 33.99368 -118.04532 3581 ft 201 kts 205°
2026-04-26 03:56 33.98333 -118.05534 3584 ft 187 kts 231°
2026-04-26 03:56 33.97479 -118.06783 3647 ft 199 kts 231°
2026-04-26 03:56 33.96623 -118.08034 3575 ft 191 kts 231°
2026-04-26 03:56 33.95796 -118.09247 3580 ft 185 kts 231°
2026-04-26 03:57 33.95140 -118.10536 3575 ft 181 kts 257°
2026-04-26 03:57 33.95266 -118.12028 3606 ft 185 kts 291°
2026-04-26 03:57 33.95823 -118.13439 3579 ft 187 kts 287°
2026-04-26 03:57 33.95898 -118.14977 3615 ft 184 kts 266°
2026-04-26 03:58 33.95864 -118.16548 3592 ft 190 kts 267°
2026-04-26 03:58 33.95781 -118.18143 3349 ft 190 kts 264°
2026-04-26 03:58 33.95643 -118.19702 3089 ft 184 kts 263°
2026-04-26 03:58 33.95492 -118.21207 2843 ft 178 kts 262°
2026-04-26 03:59 33.95341 -118.22679 2623 ft 178 kts 262°
2026-04-26 03:59 33.95189 -118.24167 2397 ft 179 kts 262°
2026-04-26 03:59 33.95036 -118.25654 2151 ft 179 kts 262°
2026-04-26 03:59 33.94884 -118.27132 1921 ft 177 kts 262°
2026-04-26 04:00 33.94738 -118.28558 1674 ft 165 kts 262°
2026-04-26 04:00 33.94600 -118.29895 1479 ft 157 kts 262°
2026-04-26 04:00 33.94471 -118.31145 1267 ft 144 kts 262°
2026-04-26 04:00 33.94354 -118.32293 1092 ft 135 kts 261°
2026-04-26 04:01 33.94236 -118.33430 919 ft 139 kts 262°
2026-04-26 04:01 33.94118 -118.34575 729 ft 137 kts 262°
2026-04-26 04:01 33.94002 -118.35711 549 ft 137 kts 262°
2026-04-26 04:01 33.93884 -118.36839 367 ft 138 kts 262°
2026-04-26 04:02 33.93768 -118.37989 179 ft 139 kts 262°
2026-04-26 04:02 33.93643 -118.39122 98 ft 129 kts 262°
2026-04-26 04:02 33.93572 -118.39852 100 ft 52 kts 263°
2026-04-26 04:02 33.93557 -118.40046 101 ft 28 kts 268°
2026-04-26 04:03 33.93585 -118.40244 100 ft 0 kts 290°
2026-04-26 04:03 33.93586 -118.40248 100 ft 3 kts 290°
2026-04-26 04:04 33.93604 -118.40307 101 ft 10 kts 290°
2026-04-26 04:04 33.93622 -118.40395 103 ft 13 kts 277°
2026-04-26 04:04 33.93616 -118.40519 102 ft 16 kts 264°
2026-04-26 04:04 33.93605 -118.40651 99 ft 16 kts 264°
2026-04-26 04:05 33.93590 -118.40783 98 ft 16 kts 261°
2026-04-26 04:05 33.93576 -118.40914 101 ft 16 kts 262°
2026-04-26 04:05 33.93562 -118.41045 101 ft 16 kts 264°
2026-04-26 04:05 33.93552 -118.41174 100 ft 6 kts 268°
2026-04-26 04:06 33.93552 -118.41180 99 ft 0 kts 270°
2026-04-26 04:06 33.93552 -118.41186 99 ft 1 kts 270°
2026-04-26 04:06 33.93552 -118.41191 99 ft 1 kts 270°
2026-04-26 04:06 33.93552 -118.41197 101 ft 0 kts 270°
2026-04-26 04:08 33.93552 -118.41198 99 ft 1 kts 270°
2026-04-26 04:08 33.93561 -118.41228 99 ft 7 kts 304°
2026-04-26 04:08 33.93633 -118.41266 101 ft 14 kts 350°
2026-04-26 04:08 33.93731 -118.41269 100 ft 15 kts 13°
2026-04-26 04:09 33.93838 -118.41260 98 ft 16 kts 356°
2026-04-26 04:09 33.93946 -118.41274 98 ft 16 kts 353°
2026-04-26 04:09 33.94055 -118.41290 98 ft 16 kts 353°
2026-04-26 04:09 33.94164 -118.41306 98 ft 16 kts 353°
2026-04-26 04:10 33.94273 -118.41322 100 ft 16 kts 353°
2026-04-26 04:10 33.94382 -118.41338 98 ft 16 kts 353°
2026-04-26 04:10 33.94480 -118.41308 97 ft 16 kts 50°
2026-04-26 04:10 33.94523 -118.41219 98 ft 11 kts 86°
2026-04-26 04:11 33.94524 -118.41197 98 ft 0 kts 91°
2026-04-26 04:11 33.94523 -118.41190 98 ft 1 kts 91°
2026-04-26 04:12 33.94523 -118.41173 98 ft 3 kts 94°
2026-04-26 04:12 33.94521 -118.41151 98 ft 3 kts 95°
2026-04-26 04:12 33.94521 -118.41146 98 ft 0 kts 95°